GTI606 ELLX-KHSV

Flight info

Callsign GTI606
Flight time 9h 55m
Altitude 26000
Route LNO N852 TERLA L608 BUB M624 NIK L610 KOPUL DCT ENHAQ DCT GAJIT DCT BAPHU/N0485F280 DCT ARKIL/M082F280 DCT KOGAD DCT 48N020W 45N030W 43N040W/M082F300 41N050W 39N060W 37N070W/N0483F320 DCT CROAK AR9 ORF DCT RDU DCT VXV DCT RQZ
Aircraft B77L/H-SDE1E2E3FGHIJ2J3J4J5M1RWXY/LB1D1

Departure

Time 2026-04-13 14:58
Airport Luxembourg-Findel International Airport (ELLX)

Arrival

Time 2026-04-14 00:53
Airport Huntsville International Airport (KHSV)
Time Latitude Longitude Altitude Speed Heading
2026-04-13 14:36 49.63681 6.22839 1218 ft 0 kts 60°
2026-04-13 14:47 49.63680 6.22837 1218 ft 2 kts 60°
2026-04-13 14:47 49.63667 6.22803 1218 ft 4 kts 60°
2026-04-13 14:47 49.63681 6.22839 1218 ft 0 kts 60°
2026-04-13 14:52 49.63675 6.22824 1218 ft 4 kts 60°
2026-04-13 14:52 49.63662 6.22788 1218 ft 4 kts 61°
2026-04-13 14:52 49.63654 6.22752 1218 ft 4 kts 100°
2026-04-13 14:52 49.63665 6.22722 1218 ft 2 kts 150°
2026-04-13 14:53 49.63655 6.22731 1218 ft 4 kts 150°
2026-04-13 14:53 49.63632 6.22752 1218 ft 4 kts 150°
2026-04-13 14:53 49.63616 6.22765 1218 ft 1 kts 150°
2026-04-13 14:55 49.63612 6.22769 1218 ft 3 kts 150°
2026-04-13 14:56 49.63579 6.22798 1218 ft 8 kts 150°
2026-04-13 14:56 49.63517 6.22855 1218 ft 10 kts 142°
2026-04-13 14:56 49.63519 6.22976 1218 ft 16 kts 62°
2026-04-13 14:56 49.63601 6.23192 1217 ft 27 kts 60°
2026-04-13 14:57 49.63687 6.23423 1215 ft 15 kts 60°
2026-04-13 14:57 49.63701 6.23523 1215 ft 10 kts 112°
2026-04-13 14:57 49.63639 6.23547 1217 ft 10 kts 191°
2026-04-13 14:58 49.63406 6.23219 1218 ft 73 kts 242°
2026-04-13 14:58 49.63028 6.22190 1219 ft 145 kts 241°
2026-04-13 14:58 49.62427 6.20579 1366 ft 190 kts 241°
2026-04-13 14:58 49.61736 6.18791 1914 ft 197 kts 241°
2026-04-13 14:59 49.61042 6.16950 2603 ft 199 kts 243°
2026-04-13 14:59 49.60351 6.15049 3044 ft 212 kts 244°
2026-04-13 14:59 49.59593 6.12982 3170 ft 230 kts 243°
2026-04-13 14:59 49.58773 6.10761 3460 ft 244 kts 243°
2026-04-13 15:00 49.57898 6.08405 3701 ft 262 kts 242°
2026-04-13 15:00 49.56980 6.05921 4214 ft 269 kts 244°
2026-04-13 15:00 49.56450 6.03186 4635 ft 270 kts 275°
2026-04-13 15:00 49.56977 6.00455 5185 ft 269 kts 305°
2026-04-13 15:01 49.58299 5.98439 5789 ft 271 kts 330°
2026-04-13 15:01 49.60076 5.97417 6369 ft 276 kts 351°
2026-04-13 15:01 49.62023 5.97246 6796 ft 285 kts
2026-04-13 15:01 49.64030 5.97376 7306 ft 292 kts
2026-04-13 15:02 49.66072 5.97569 7857 ft 296 kts
2026-04-13 15:02 49.68141 5.97768 8421 ft 301 kts
2026-04-13 15:02 49.70251 5.97955 8935 ft 307 kts
2026-04-13 15:02 49.72404 5.98129 9466 ft 312 kts
2026-04-13 15:03 49.74592 5.98293 9964 ft 318 kts
2026-04-13 15:03 49.76835 5.98453 10272 ft 331 kts
2026-04-13 15:03 49.79166 5.98614 10414 ft 349 kts
2026-04-13 15:03 49.81660 5.98781 10569 ft 368 kts
2026-04-13 15:04 49.84276 5.98954 10816 ft 383 kts
2026-04-13 15:04 49.86977 5.99130 11242 ft 393 kts
2026-04-13 15:04 49.89736 5.99310 11787 ft 400 kts
2026-04-13 15:04 49.92531 5.99493 12387 ft 404 kts
2026-04-13 15:05 49.95353 5.99677 13017 ft 408 kts
2026-04-13 15:05 49.98207 5.99864 13618 ft 413 kts
2026-04-13 15:05 50.01090 6.00053 14145 ft 417 kts
2026-04-13 15:05 50.04005 6.00243 14680 ft 421 kts
2026-04-13 15:06 50.06945 6.00407 15191 ft 421 kts 358°
2026-04-13 15:06 50.09838 5.99781 15440 ft 424 kts 338°
2026-04-13 15:06 50.12553 5.97996 15764 ft 426 kts 333°
2026-04-13 15:06 50.15311 5.96206 16250 ft 431 kts 336°
2026-04-13 15:07 50.18115 5.94548 16911 ft 432 kts 337°
2026-04-13 15:07 50.20946 5.92923 17473 ft 435 kts 337°
2026-04-13 15:07 50.23809 5.91290 17947 ft 440 kts 337°
2026-04-13 15:07 50.26702 5.89632 18393 ft 445 kts 337°
2026-04-13 15:08 50.29617 5.87951 18831 ft 448 kts 337°
2026-04-13 15:08 50.32555 5.86248 19287 ft 452 kts 337°
2026-04-13 15:08 50.35507 5.84531 19730 ft 455 kts 337°
2026-04-13 15:08 50.38482 5.82795 20164 ft 458 kts 336°
2026-04-13 15:09 50.41482 5.81042 20585 ft 462 kts 336°
2026-04-13 15:09 50.44500 5.79277 21022 ft 465 kts 336°
2026-04-13 15:09 50.47545 5.77494 21436 ft 468 kts 336°
2026-04-13 15:09 50.50565 5.75723 21855 ft 472 kts 336°
2026-04-13 15:10 50.53652 5.73911 22240 ft 476 kts 336°
2026-04-13 15:10 50.56764 5.72081 22634 ft 480 kts 336°
2026-04-13 15:10 50.59914 5.70279 23042 ft 484 kts 339°
2026-04-13 15:10 50.63130 5.68706 23433 ft 483 kts 338°
2026-04-13 15:11 50.66122 5.66365 23556 ft 480 kts 317°
2026-04-13 15:11 50.68436 5.62685 23837 ft 470 kts 300°
2026-04-13 15:11 50.70076 5.58310 24329 ft 458 kts 286°
2026-04-13 15:11 50.71089 5.53608 24657 ft 452 kts 280°
2026-04-13 15:12 50.71981 5.48828 24905 ft 456 kts 280°
2026-04-13 15:12 50.72880 5.44008 25239 ft 459 kts 280°
2026-04-13 15:12 50.73799 5.39175 25608 ft 461 kts 280°
2026-04-13 15:12 50.74739 5.34324 25973 ft 463 kts 281°
2026-04-13 15:13 50.75696 5.29454 26310 ft 465 kts 281°
2026-04-13 15:13 50.76661 5.24563 26616 ft 468 kts 281°
2026-04-13 15:13 50.77633 5.19636 26940 ft 471 kts 281°
2026-04-13 15:13 50.78608 5.14683 27291 ft 473 kts 281°
2026-04-13 15:14 50.79584 5.09708 27585 ft 476 kts 280°
2026-04-13 15:14 50.80564 5.04690 27875 ft 479 kts 280°
2026-04-13 15:14 50.81542 4.99621 27937 ft 483 kts 280°
2026-04-13 15:14 50.82515 4.94518 27955 ft 488 kts 280°
2026-04-13 15:15 50.83496 4.89353 27971 ft 492 kts 280°
2026-04-13 15:15 50.84481 4.84151 27993 ft 496 kts 280°
2026-04-13 15:15 50.85459 4.78986 27985 ft 498 kts 280°
2026-04-13 15:15 50.86452 4.73750 27983 ft 497 kts 280°
2026-04-13 15:16 50.87445 4.68498 28018 ft 497 kts 279°
2026-04-13 15:16 50.88433 4.63253 27975 ft 497 kts 279°
2026-04-13 15:16 50.89619 4.58101 27964 ft 503 kts 289°
2026-04-13 15:16 50.91396 4.53276 27974 ft 512 kts 299°
2026-04-13 15:17 50.93673 4.48888 27976 ft 520 kts 309°
2026-04-13 15:17 50.96409 4.45072 27983 ft 525 kts 315°
2026-04-13 15:17 50.99251 4.41443 27975 ft 525 kts 315°
2026-04-13 15:17 51.02086 4.37795 27966 ft 525 kts 315°
2026-04-13 15:18 51.04896 4.34093 27973 ft 524 kts 314°
2026-04-13 15:18 51.07677 4.30357 27985 ft 524 kts 314°
2026-04-13 15:18 51.10462 4.26587 27976 ft 526 kts 314°
2026-04-13 15:18 51.13164 4.22720 27955 ft 519 kts 307°
2026-04-13 15:19 51.15354 4.18249 27978 ft 507 kts 295°
2026-04-13 15:19 51.16968 4.13329 27977 ft 497 kts 285°
2026-04-13 15:19 51.18058 4.08167 27966 ft 486 kts 275°
2026-04-13 15:19 51.18703 4.02897 27969 ft 484 kts 274°
2026-04-13 15:20 51.19352 3.97635 27976 ft 486 kts 274°
2026-04-13 15:20 51.20037 3.92347 27980 ft 487 kts 275°
2026-04-13 15:20 51.20744 3.87058 27980 ft 489 kts 275°
2026-04-13 15:20 51.21461 3.81759 27980 ft 489 kts 275°
2026-04-13 15:21 51.22179 3.76449 28004 ft 491 kts 274°
2026-04-13 15:21 51.22894 3.71117 27976 ft 492 kts 274°
2026-04-13 15:21 51.23604 3.65785 27992 ft 492 kts 274°
2026-04-13 15:21 51.24311 3.60445 27983 ft 492 kts 274°
2026-04-13 15:22 51.25004 3.55178 27991 ft 491 kts 274°
2026-04-13 15:22 51.25705 3.49847 27992 ft 491 kts 274°
2026-04-13 15:22 51.26403 3.44518 27989 ft 490 kts 274°
2026-04-13 15:22 51.27098 3.39196 28000 ft 490 kts 274°
2026-04-13 15:23 51.27791 3.33878 27999 ft 489 kts 274°
2026-04-13 15:23 51.29174 3.23222 28025 ft 490 kts 273°
2026-04-13 15:24 51.30545 3.12568 28017 ft 489 kts 273°
2026-04-13 15:24 51.31907 3.01916 28018 ft 489 kts 273°
2026-04-13 15:25 51.33258 2.91264 28009 ft 489 kts 273°
2026-04-13 15:25 51.34601 2.80599 28024 ft 490 kts 272°
2026-04-13 15:26 51.35934 2.69893 28028 ft 491 kts 272°
2026-04-13 15:26 51.37245 2.59163 28022 ft 492 kts 272°
2026-04-13 15:27 51.38548 2.48407 28017 ft 492 kts 272°
2026-04-13 15:27 51.39844 2.37652 28075 ft 492 kts 274°
2026-04-13 15:28 51.41133 2.26881 28023 ft 492 kts 274°
2026-04-13 15:28 51.42437 2.16136 28012 ft 490 kts 274°
2026-04-13 15:29 51.43737 2.05511 28020 ft 489 kts 274°
2026-04-13 15:29 51.45021 1.94835 28021 ft 487 kts 274°
2026-04-13 15:30 51.46281 1.84164 28022 ft 486 kts 277°
2026-04-13 15:30 51.47498 1.73540 28018 ft 483 kts 276°
2026-04-13 15:31 51.48700 1.62972 28018 ft 481 kts 276°
2026-04-13 15:31 51.49894 1.52426 28016 ft 480 kts 276°
2026-04-13 15:32 51.51078 1.41891 28036 ft 479 kts 278°
2026-04-13 15:32 51.52053 1.33156 28015 ft 477 kts 278°
2026-04-13 15:33 51.53213 1.22704 28011 ft 474 kts 278°
2026-04-13 15:33 51.54064 1.12269 28004 ft 470 kts 271°
2026-04-13 15:34 51.53603 0.96604 28006 ft 468 kts 265°
2026-04-13 15:34 51.53187 0.86188 27997 ft 467 kts 268°
2026-04-13 15:35 51.52986 0.80996 27989 ft 466 kts 268°
2026-04-13 15:35 51.52787 0.75805 27988 ft 465 kts 268°
2026-04-13 15:35 51.52587 0.70629 27989 ft 464 kts 268°
2026-04-13 15:35 51.52386 0.65469 27990 ft 463 kts 268°
2026-04-13 15:36 51.52182 0.60318 27993 ft 462 kts 268°
2026-04-13 15:36 51.51976 0.55167 27995 ft 462 kts 268°
2026-04-13 15:36 51.51771 0.50094 27996 ft 462 kts 268°
2026-04-13 15:36 51.51559 0.44948 27998 ft 461 kts 269°
2026-04-13 15:37 51.51343 0.39752 28000 ft 460 kts 269°
2026-04-13 15:37 51.51129 0.34624 27998 ft 460 kts 269°
2026-04-13 15:37 51.50916 0.29573 27991 ft 459 kts 269°
2026-04-13 15:37 51.50698 0.24472 27992 ft 458 kts 269°
2026-04-13 15:38 51.50478 0.19372 27997 ft 458 kts 269°
2026-04-13 15:38 51.50255 0.14278 27994 ft 457 kts 269°
2026-04-13 15:38 51.50032 0.09195 27993 ft 457 kts 269°
2026-04-13 15:38 51.49806 0.04112 27994 ft 457 kts 269°
2026-04-13 15:39 51.49578 -0.00964 27992 ft 457 kts 269°
2026-04-13 15:39 51.49346 -0.06042 27992 ft 455 kts 270°
2026-04-13 15:39 51.49114 -0.11105 27998 ft 455 kts 270°
2026-04-13 15:39 51.48880 -0.16161 27992 ft 454 kts 270°
2026-04-13 15:40 51.48645 -0.21206 27988 ft 453 kts 270°
2026-04-13 15:40 51.48408 -0.26239 27993 ft 452 kts 270°
2026-04-13 15:40 51.48169 -0.31269 27991 ft 452 kts 270°
2026-04-13 15:40 51.47929 -0.36285 27993 ft 451 kts 270°
2026-04-13 15:41 51.47687 -0.41299 27998 ft 451 kts 270°
2026-04-13 15:41 51.47442 -0.46318 27994 ft 451 kts 270°
2026-04-13 15:41 51.47194 -0.51344 27998 ft 452 kts 270°
2026-04-13 15:41 51.46945 -0.56365 27998 ft 452 kts 270°
2026-04-13 15:42 51.46693 -0.61392 27988 ft 452 kts 270°
2026-04-13 15:42 51.46439 -0.66432 27996 ft 453 kts 270°
2026-04-13 15:42 51.46182 -0.71462 28000 ft 453 kts 269°
2026-04-13 15:42 51.45923 -0.76494 27997 ft 454 kts 269°
2026-04-13 15:43 51.45666 -0.81464 27986 ft 454 kts 269°
2026-04-13 15:43 51.45398 -0.86575 27996 ft 454 kts 269°
2026-04-13 15:43 51.45135 -0.91560 27998 ft 454 kts 269°
2026-04-13 15:43 51.44867 -0.96607 27972 ft 455 kts 270°
2026-04-13 15:44 51.44596 -1.01648 27988 ft 453 kts 270°
2026-04-13 15:44 51.44325 -1.06668 27986 ft 452 kts 270°
2026-04-13 15:44 51.44053 -1.11658 27987 ft 450 kts 270°
2026-04-13 15:44 51.43778 -1.16662 27993 ft 449 kts 270°
2026-04-13 15:45 51.43503 -1.21649 27986 ft 448 kts 270°
2026-04-13 15:45 51.43226 -1.26623 27986 ft 448 kts 270°
2026-04-13 15:45 51.42947 -1.31590 27991 ft 447 kts 270°
2026-04-13 15:45 51.42666 -1.36552 27992 ft 447 kts 270°
2026-04-13 15:46 51.42383 -1.41516 27990 ft 447 kts 270°
2026-04-13 15:46 51.42098 -1.46485 27980 ft 447 kts 270°
2026-04-13 15:46 51.41811 -1.51440 27986 ft 447 kts 270°
2026-04-13 15:46 51.41524 -1.56392 27984 ft 446 kts 270°
2026-04-13 15:47 51.41234 -1.61339 27985 ft 446 kts 270°
2026-04-13 15:47 51.40939 -1.66273 27991 ft 446 kts 269°
2026-04-13 15:47 51.40458 -1.71215 27993 ft 450 kts 264°
2026-04-13 15:47 51.39716 -1.76099 27999 ft 454 kts 259°
2026-04-13 15:48 51.38679 -1.80915 27991 ft 459 kts 256°
2026-04-13 15:48 51.37576 -1.85704 27987 ft 458 kts 256°
2026-04-13 15:48 51.36501 -1.90502 27990 ft 458 kts 257°
2026-04-13 15:48 51.35444 -1.95292 27977 ft 457 kts 257°
2026-04-13 15:49 51.34530 -2.00131 27980 ft 452 kts 261°
2026-04-13 15:49 51.33889 -2.05018 27984 ft 447 kts 267°
2026-04-13 15:49 51.33489 -2.09938 27990 ft 446 kts 268°
2026-04-13 15:49 51.33079 -2.14860 27990 ft 446 kts 267°
2026-04-13 15:50 51.32650 -2.19780 27988 ft 446 kts 267°
2026-04-13 15:50 51.32214 -2.24686 27986 ft 446 kts 267°
2026-04-13 15:50 51.31773 -2.29593 27986 ft 446 kts 267°
2026-04-13 15:50 51.31328 -2.34499 27981 ft 447 kts 267°
2026-04-13 15:51 51.30881 -2.39417 27955 ft 447 kts 266°
2026-04-13 15:51 51.30434 -2.44323 27993 ft 446 kts 266°
2026-04-13 15:51 51.29984 -2.49230 27986 ft 446 kts 266°
2026-04-13 15:51 51.29534 -2.54127 27989 ft 446 kts 266°
2026-04-13 15:52 51.29380 -2.55790 27996 ft 446 kts 266°
2026-04-13 15:52 51.29370 -2.55904 27996 ft 446 kts 266°
2026-04-13 15:52 51.28899 -2.60995 27998 ft 446 kts 266°
2026-04-13 15:52 51.28443 -2.65897 27996 ft 447 kts 266°
2026-04-13 15:53 51.27984 -2.70813 27993 ft 447 kts 266°
2026-04-13 15:53 51.27523 -2.75725 27993 ft 447 kts 266°
2026-04-13 15:53 51.27061 -2.80631 27992 ft 447 kts 266°
2026-04-13 15:53 51.26595 -2.85546 27987 ft 447 kts 266°
2026-04-13 15:54 51.26129 -2.90448 27979 ft 447 kts 266°
2026-04-13 15:54 51.25660 -2.95346 27983 ft 447 kts 266°
2026-04-13 15:54 51.25190 -3.00243 27987 ft 446 kts 266°
2026-04-13 15:54 51.24717 -3.05142 27986 ft 446 kts 266°
2026-04-13 15:55 51.24243 -3.10034 27985 ft 446 kts 266°
2026-04-13 15:55 51.23774 -3.14861 27986 ft 446 kts 266°
2026-04-13 15:55 51.23295 -3.19762 27987 ft 446 kts 266°
2026-04-13 15:55 51.22814 -3.24653 27987 ft 446 kts 266°
2026-04-13 15:56 51.22332 -3.29544 27987 ft 446 kts 265°
2026-04-13 15:56 51.21847 -3.34438 27961 ft 447 kts 265°
2026-04-13 15:56 51.21361 -3.39326 27981 ft 446 kts 265°
2026-04-13 15:56 51.20873 -3.44209 27986 ft 447 kts 265°
2026-04-13 15:57 51.20382 -3.49103 27986 ft 447 kts 265°
2026-04-13 15:57 51.19889 -3.53997 27989 ft 447 kts 265°
2026-04-13 15:57 51.19393 -3.58898 27981 ft 448 kts 265°
2026-04-13 15:57 51.18894 -3.63808 27981 ft 448 kts 265°
2026-04-13 15:58 51.18394 -3.68710 27984 ft 448 kts 265°
2026-04-13 15:58 51.17892 -3.73612 27979 ft 449 kts 265°
2026-04-13 15:58 51.17386 -3.78520 27975 ft 449 kts 265°
2026-04-13 15:58 51.16878 -3.83421 27980 ft 449 kts 265°
2026-04-13 15:59 51.16368 -3.88315 27982 ft 449 kts 265°
2026-04-13 15:59 51.15856 -3.93218 27978 ft 448 kts 265°
2026-04-13 15:59 51.15342 -3.98118 27984 ft 448 kts 265°
2026-04-13 15:59 51.14827 -4.03016 27969 ft 448 kts 265°
2026-04-13 16:00 51.14310 -4.07914 27978 ft 448 kts 265°
2026-04-13 16:00 51.13792 -4.12795 27981 ft 448 kts 265°
2026-04-13 16:00 51.13272 -4.17678 27982 ft 448 kts 265°
2026-04-13 16:00 51.12750 -4.22562 27984 ft 448 kts 264°
2026-04-13 16:01 51.12226 -4.27451 27958 ft 448 kts 264°
2026-04-13 16:01 51.11699 -4.32333 27969 ft 448 kts 264°
2026-04-13 16:01 51.11171 -4.37215 27970 ft 448 kts 264°
2026-04-13 16:01 51.10647 -4.42033 27975 ft 448 kts 264°
2026-04-13 16:02 51.10108 -4.46974 27977 ft 448 kts 264°
2026-04-13 16:02 51.09572 -4.51860 27975 ft 448 kts 264°
2026-04-13 16:02 51.09043 -4.56675 27975 ft 448 kts 264°
2026-04-13 16:02 51.08504 -4.61554 27976 ft 448 kts 264°
2026-04-13 16:03 51.07962 -4.66439 27976 ft 449 kts 264°
2026-04-13 16:03 51.07418 -4.71328 27975 ft 449 kts 264°
2026-04-13 16:03 51.06872 -4.76210 27959 ft 449 kts 264°
2026-04-13 16:03 51.06324 -4.81095 27966 ft 449 kts 264°
2026-04-13 16:04 51.05773 -4.85981 27972 ft 449 kts 264°
2026-04-13 16:04 51.05222 -4.90859 27973 ft 449 kts 264°
2026-04-13 16:04 51.04667 -4.95747 27973 ft 449 kts 264°
2026-04-13 16:04 51.04110 -5.00630 27973 ft 449 kts 264°
2026-04-13 16:05 51.03551 -5.05516 27973 ft 450 kts 264°
2026-04-13 16:05 51.02989 -5.10405 27972 ft 450 kts 264°
2026-04-13 16:05 51.02426 -5.15289 27972 ft 450 kts 264°
2026-04-13 16:05 51.01861 -5.20169 27973 ft 450 kts 264°
2026-04-13 16:06 51.01293 -5.25055 27969 ft 450 kts 264°
2026-04-13 16:06 51.00723 -5.29938 27965 ft 450 kts 263°
2026-04-13 16:06 51.00151 -5.34824 27964 ft 450 kts 263°
2026-04-13 16:06 50.99578 -5.39696 27963 ft 450 kts 263°
2026-04-13 16:07 50.99003 -5.44574 27966 ft 450 kts 263°
2026-04-13 16:07 50.98425 -5.49454 27964 ft 450 kts 263°
2026-04-13 16:07 50.97845 -5.54329 27966 ft 450 kts 263°
2026-04-13 16:07 50.97263 -5.59204 27965 ft 450 kts 263°
2026-04-13 16:08 50.96680 -5.64070 27961 ft 450 kts 263°
2026-04-13 16:08 50.96095 -5.68942 27938 ft 449 kts 263°
2026-04-13 16:08 50.95507 -5.73809 27966 ft 449 kts 263°
2026-04-13 16:08 50.94918 -5.78676 27950 ft 450 kts 263°
2026-04-13 16:09 50.94326 -5.83548 27961 ft 450 kts 263°
2026-04-13 16:09 50.93732 -5.88413 27959 ft 450 kts 263°
2026-04-13 16:09 50.93337 -5.91641 27944 ft 450 kts 263°
2026-04-13 16:09 50.92544 -5.98095 27953 ft 450 kts 263°
2026-04-13 16:10 50.91944 -6.02959 27956 ft 450 kts 263°
2026-04-13 16:10 50.91340 -6.07837 27954 ft 451 kts 263°
2026-04-13 16:10 50.90736 -6.12704 27936 ft 451 kts 263°
2026-04-13 16:10 50.90128 -6.17576 27945 ft 451 kts 263°
2026-04-13 16:11 50.89519 -6.22442 27941 ft 451 kts 263°
2026-04-13 16:11 50.88908 -6.27312 27949 ft 451 kts 263°
2026-04-13 16:11 50.88294 -6.32182 27947 ft 451 kts 263°
2026-04-13 16:11 50.87678 -6.37052 27946 ft 451 kts 263°
2026-04-13 16:12 50.87060 -6.41915 27944 ft 451 kts 263°
2026-04-13 16:12 50.86440 -6.46786 27949 ft 451 kts 263°
2026-04-13 16:12 50.85817 -6.51656 27947 ft 451 kts 263°
2026-04-13 16:12 50.85193 -6.56524 27945 ft 451 kts 263°
2026-04-13 16:13 50.84566 -6.61390 27925 ft 451 kts 262°
2026-04-13 16:13 50.83938 -6.66250 27932 ft 451 kts 262°
2026-04-13 16:13 50.83308 -6.71111 27939 ft 451 kts 262°
2026-04-13 16:13 50.82675 -6.75980 27943 ft 451 kts 262°
2026-04-13 16:14 50.82041 -6.80838 27938 ft 452 kts 262°
2026-04-13 16:14 50.81403 -6.85708 27937 ft 452 kts 262°
2026-04-13 16:14 50.80764 -6.90571 27938 ft 452 kts 262°
2026-04-13 16:14 50.80131 -6.95366 27930 ft 452 kts 262°
2026-04-13 16:15 50.79488 -7.00227 27930 ft 452 kts 262°
2026-04-13 16:15 50.78842 -7.05095 27920 ft 452 kts 262°
2026-04-13 16:15 50.78194 -7.09954 27926 ft 452 kts 262°
2026-04-13 16:15 50.77545 -7.14810 27923 ft 452 kts 262°
2026-04-13 16:16 50.76893 -7.19666 27926 ft 452 kts 262°
2026-04-13 16:16 50.76240 -7.24520 27926 ft 452 kts 262°
2026-04-13 16:16 50.75584 -7.29376 27922 ft 452 kts 262°
2026-04-13 16:16 50.74927 -7.34225 27920 ft 452 kts 262°
2026-04-13 16:17 50.74268 -7.39070 27919 ft 452 kts 262°
2026-04-13 16:17 50.73607 -7.43919 27919 ft 452 kts 262°
2026-04-13 16:17 50.72945 -7.48758 27917 ft 452 kts 262°
2026-04-13 16:17 50.72280 -7.53601 27902 ft 451 kts 262°
2026-04-13 16:18 50.71613 -7.58438 27911 ft 451 kts 261°
2026-04-13 16:18 50.70945 -7.63272 27915 ft 451 kts 261°
2026-04-13 16:18 50.70275 -7.68106 27908 ft 451 kts 261°
2026-04-13 16:18 50.69603 -7.72935 27906 ft 451 kts 261°
2026-04-13 16:19 50.68929 -7.77766 27904 ft 451 kts 261°
2026-04-13 16:19 50.68253 -7.82595 27905 ft 451 kts 261°
2026-04-13 16:19 50.67575 -7.87424 27902 ft 451 kts 261°
2026-04-13 16:19 50.66897 -7.92245 27902 ft 451 kts 261°
2026-04-13 16:20 50.66215 -7.97075 27885 ft 451 kts 261°
2026-04-13 16:20 50.65534 -8.01902 27893 ft 451 kts 261°
2026-04-13 16:20 50.64879 -8.06726 27888 ft 451 kts 262°
2026-04-13 16:20 50.64238 -8.11558 27893 ft 451 kts 262°
2026-04-13 16:21 50.63602 -8.16388 27894 ft 451 kts 262°
2026-04-13 16:21 50.62972 -8.21159 27893 ft 451 kts 262°
2026-04-13 16:21 50.62330 -8.25988 27888 ft 451 kts 262°
2026-04-13 16:21 50.61675 -8.30887 27888 ft 451 kts 262°
2026-04-13 16:22 50.61034 -8.35650 27885 ft 451 kts 262°
2026-04-13 16:22 50.60381 -8.40479 27871 ft 451 kts 262°
2026-04-13 16:22 50.59067 -8.50133 27880 ft 451 kts 261°
2026-04-13 16:23 50.58408 -8.54950 27880 ft 451 kts 261°
2026-04-13 16:23 50.57746 -8.59773 27873 ft 451 kts 261°
2026-04-13 16:23 50.57082 -8.64591 27873 ft 451 kts 261°
2026-04-13 16:23 50.56418 -8.69400 27874 ft 450 kts 261°
2026-04-13 16:24 50.55751 -8.74211 27875 ft 450 kts 261°
2026-04-13 16:24 50.55082 -8.79022 27868 ft 450 kts 261°
2026-04-13 16:24 50.54638 -8.82211 27868 ft 450 kts 261°
2026-04-13 16:24 50.53966 -8.87011 27842 ft 450 kts 261°
2026-04-13 16:25 50.53293 -8.91814 27855 ft 450 kts 261°
2026-04-13 16:25 50.52616 -8.96622 27855 ft 450 kts 261°
2026-04-13 16:25 50.51938 -9.01428 27859 ft 451 kts 261°
2026-04-13 16:25 50.51258 -9.06231 27863 ft 451 kts 261°
2026-04-13 16:26 50.50575 -9.11043 27865 ft 452 kts 261°
2026-04-13 16:26 50.49889 -9.15855 27856 ft 452 kts 261°
2026-04-13 16:26 50.49200 -9.20679 27854 ft 452 kts 261°
2026-04-13 16:26 50.48508 -9.25500 27855 ft 453 kts 261°
2026-04-13 16:27 50.47815 -9.30321 27877 ft 453 kts 261°
2026-04-13 16:27 50.47119 -9.35143 27851 ft 453 kts 261°
2026-04-13 16:27 50.46420 -9.39965 27848 ft 453 kts 261°
2026-04-13 16:27 50.45721 -9.44783 27846 ft 453 kts 261°
2026-04-13 16:28 50.45020 -9.49593 27844 ft 452 kts 261°
2026-04-13 16:28 50.44317 -9.54402 27846 ft 452 kts 261°
2026-04-13 16:28 50.43622 -9.59141 27847 ft 452 kts 261°
2026-04-13 16:28 50.42906 -9.64008 27846 ft 452 kts 261°
2026-04-13 16:29 50.42198 -9.68805 27835 ft 451 kts 261°
2026-04-13 16:29 50.41499 -9.73531 27834 ft 451 kts 261°
2026-04-13 16:29 50.40788 -9.78323 27838 ft 451 kts 261°
2026-04-13 16:29 50.40076 -9.83107 27837 ft 451 kts 261°
2026-04-13 16:30 50.39360 -9.87900 27834 ft 451 kts 261°
2026-04-13 16:30 50.38644 -9.92679 27835 ft 451 kts 261°
2026-04-13 16:30 50.37925 -9.97468 27835 ft 451 kts 261°
2026-04-13 16:30 50.37205 -10.02244 27826 ft 451 kts 261°
2026-04-13 16:31 50.36482 -10.07032 27827 ft 451 kts 261°
2026-04-13 16:31 50.35757 -10.11814 27827 ft 451 kts 261°
2026-04-13 16:31 50.35030 -10.16595 27824 ft 452 kts 261°
2026-04-13 16:31 50.34300 -10.21375 27800 ft 451 kts 261°
2026-04-13 16:32 50.33569 -10.26156 27805 ft 451 kts 261°
2026-04-13 16:32 50.32837 -10.30922 27809 ft 451 kts 261°
2026-04-13 16:32 50.32103 -10.35694 27816 ft 451 kts 261°
2026-04-13 16:32 50.31368 -10.40455 27798 ft 451 kts 261°
2026-04-13 16:33 50.30630 -10.45227 27796 ft 451 kts 261°
2026-04-13 16:33 50.29891 -10.49984 27805 ft 451 kts 261°
2026-04-13 16:33 50.29150 -10.54745 27794 ft 450 kts 261°
2026-04-13 16:33 50.28407 -10.59502 27795 ft 450 kts 261°
2026-04-13 16:34 50.27662 -10.64258 27767 ft 450 kts 261°
2026-04-13 16:34 50.26915 -10.69007 27799 ft 450 kts 261°
2026-04-13 16:34 50.26168 -10.73750 27781 ft 450 kts 261°
2026-04-13 16:34 50.25418 -10.78501 27788 ft 449 kts 261°
2026-04-13 16:35 50.24669 -10.83229 27786 ft 449 kts 261°
2026-04-13 16:35 50.23916 -10.87969 27785 ft 449 kts 261°
2026-04-13 16:35 50.23161 -10.92702 27772 ft 449 kts 261°
2026-04-13 16:35 50.22406 -10.97431 27772 ft 449 kts 261°
2026-04-13 16:36 50.21659 -11.02086 27772 ft 449 kts 261°
2026-04-13 16:36 50.20899 -11.06814 27771 ft 449 kts 261°
2026-04-13 16:36 50.20138 -11.11531 27754 ft 448 kts 261°
2026-04-13 16:36 50.19376 -11.16245 27757 ft 447 kts 261°
2026-04-13 16:37 50.18614 -11.20946 27757 ft 447 kts 261°
2026-04-13 16:37 50.17850 -11.25648 27751 ft 447 kts 261°
2026-04-13 16:37 50.17086 -11.30339 27752 ft 446 kts 261°
2026-04-13 16:37 50.16319 -11.35030 27755 ft 446 kts 261°
2026-04-13 16:38 50.15551 -11.39717 27752 ft 446 kts 261°
2026-04-13 16:38 50.14782 -11.44395 27739 ft 446 kts 261°
2026-04-13 16:38 50.14011 -11.49069 27739 ft 446 kts 261°
2026-04-13 16:38 50.13236 -11.53758 27723 ft 445 kts 261°
2026-04-13 16:39 50.12462 -11.58426 27734 ft 445 kts 261°
2026-04-13 16:39 50.11685 -11.63098 27729 ft 445 kts 261°
2026-04-13 16:39 50.10910 -11.67750 27731 ft 444 kts 261°
2026-04-13 16:39 50.10134 -11.72395 27733 ft 444 kts 261°
2026-04-13 16:40 50.09353 -11.77059 27730 ft 444 kts 261°
2026-04-13 16:40 50.08571 -11.81712 27718 ft 444 kts 261°
2026-04-13 16:40 50.07789 -11.86356 27723 ft 444 kts 261°
2026-04-13 16:40 50.07004 -11.91005 27721 ft 444 kts 261°
2026-04-13 16:41 50.06217 -11.95652 27681 ft 444 kts 261°
2026-04-13 16:41 50.05428 -12.00293 27708 ft 443 kts 261°
2026-04-13 16:41 50.04652 -12.04845 27698 ft 443 kts 261°
2026-04-13 16:41 50.03851 -12.09543 27702 ft 442 kts 261°
2026-04-13 16:42 50.03060 -12.14163 27700 ft 442 kts 261°
2026-04-13 16:42 50.02279 -12.18711 27694 ft 442 kts 261°
2026-04-13 16:42 50.01475 -12.23384 27706 ft 441 kts 261°
2026-04-13 16:42 50.00690 -12.27935 27700 ft 441 kts 261°
2026-04-13 16:43 49.99893 -12.32545 27701 ft 441 kts 261°
2026-04-13 16:43 49.99094 -12.37150 27692 ft 442 kts 261°
2026-04-13 16:43 49.98294 -12.41753 27694 ft 441 kts 261°
2026-04-13 16:43 49.97492 -12.46350 27672 ft 441 kts 261°
2026-04-13 16:44 49.96688 -12.50946 27680 ft 440 kts 261°
2026-04-13 16:44 49.95884 -12.55532 27682 ft 440 kts 261°
2026-04-13 16:44 49.95079 -12.60114 27687 ft 440 kts 261°
2026-04-13 16:44 49.94271 -12.64699 27674 ft 440 kts 261°
2026-04-13 16:45 49.93462 -12.69284 27673 ft 440 kts 261°
2026-04-13 16:45 49.92650 -12.73869 27674 ft 440 kts 261°
2026-04-13 16:45 49.91837 -12.78448 27674 ft 441 kts 261°
2026-04-13 16:45 49.91022 -12.83028 27646 ft 440 kts 261°
2026-04-13 16:46 49.90204 -12.87610 27668 ft 440 kts 261°
2026-04-13 16:46 49.89387 -12.92176 27667 ft 440 kts 261°
2026-04-13 16:46 49.88568 -12.96747 27667 ft 440 kts 261°
2026-04-13 16:46 49.87748 -13.01309 27666 ft 440 kts 261°
2026-04-13 16:47 49.86925 -13.05877 27659 ft 440 kts 261°
2026-04-13 16:47 49.86101 -13.10437 27659 ft 440 kts 261°
2026-04-13 16:47 49.85275 -13.14996 27665 ft 439 kts 261°
2026-04-13 16:47 49.84448 -13.19551 27660 ft 439 kts 261°
2026-04-13 16:48 49.83617 -13.24111 27659 ft 439 kts 261°
2026-04-13 16:48 49.82788 -13.28655 27651 ft 439 kts 261°
2026-04-13 16:48 49.81954 -13.33207 27648 ft 439 kts 261°
2026-04-13 16:48 49.81120 -13.37753 27651 ft 439 kts 261°
2026-04-13 16:49 49.80285 -13.42295 27649 ft 439 kts 261°
2026-04-13 16:49 49.79449 -13.46832 27651 ft 438 kts 261°
2026-04-13 16:49 49.78611 -13.51364 27649 ft 438 kts 260°
2026-04-13 16:49 49.77771 -13.55899 27648 ft 438 kts 260°
2026-04-13 16:50 49.76929 -13.60436 27649 ft 438 kts 260°
2026-04-13 16:50 49.76086 -13.64964 27648 ft 439 kts 260°
2026-04-13 16:50 49.75241 -13.69495 27578 ft 439 kts 259°
2026-04-13 16:50 49.74404 -13.73972 27634 ft 440 kts 259°
2026-04-13 16:51 49.73550 -13.78527 27639 ft 442 kts 259°
2026-04-13 16:51 49.72691 -13.83101 27645 ft 444 kts 259°
2026-04-13 16:51 49.71826 -13.87693 27672 ft 446 kts 259°
2026-04-13 16:51 49.70956 -13.92303 27646 ft 448 kts 259°
2026-04-13 16:52 49.70560 -13.94394 27647 ft 448 kts 259°
2026-04-13 16:52 49.69685 -13.99009 27653 ft 449 kts 259°
2026-04-13 16:52 49.68803 -14.03644 27651 ft 450 kts 259°
2026-04-13 16:53 49.67922 -14.08268 27643 ft 450 kts 259°
2026-04-13 16:53 49.67035 -14.12908 27639 ft 449 kts 259°
2026-04-13 16:53 49.66150 -14.17526 27646 ft 448 kts 259°
2026-04-13 16:53 49.65266 -14.22129 27638 ft 448 kts 259°
2026-04-13 16:54 49.64381 -14.26726 27636 ft 447 kts 259°
2026-04-13 16:54 49.63496 -14.31318 27640 ft 446 kts 259°
2026-04-13 16:54 49.62611 -14.35898 27640 ft 445 kts 259°
2026-04-13 16:54 49.61725 -14.40472 27641 ft 445 kts 259°
2026-04-13 16:55 49.60837 -14.45041 27640 ft 445 kts 258°
2026-04-13 16:55 49.59949 -14.49603 27664 ft 445 kts 258°
2026-04-13 16:55 49.59057 -14.54179 27632 ft 445 kts 258°
2026-04-13 16:55 49.58165 -14.58740 27656 ft 445 kts 258°
2026-04-13 16:56 49.57270 -14.63309 27639 ft 445 kts 258°
2026-04-13 16:56 49.56371 -14.67879 27655 ft 446 kts 258°
2026-04-13 16:56 49.55484 -14.72383 27653 ft 446 kts 258°
2026-04-13 16:56 49.54582 -14.76949 27638 ft 446 kts 258°
2026-04-13 16:57 49.53676 -14.81527 27653 ft 447 kts 258°
2026-04-13 16:57 49.52770 -14.86098 27635 ft 447 kts 258°
2026-04-13 16:57 49.51862 -14.90671 27648 ft 447 kts 258°
2026-04-13 16:57 49.50950 -14.95245 27627 ft 447 kts 258°
2026-04-13 16:58 49.50022 -14.99809 27640 ft 448 kts 256°
2026-04-13 16:58 49.48890 -15.04290 27649 ft 451 kts 252°
2026-04-13 16:58 49.47659 -15.08730 27643 ft 451 kts 252°
2026-04-13 16:58 49.46436 -15.13175 27642 ft 451 kts 252°
2026-04-13 16:59 49.45218 -15.17625 27647 ft 451 kts 252°
2026-04-13 16:59 49.44003 -15.22075 27646 ft 452 kts 252°
2026-04-13 16:59 49.42790 -15.26518 27647 ft 452 kts 252°
2026-04-13 16:59 49.41575 -15.30967 27645 ft 452 kts 252°
2026-04-13 17:00 49.40358 -15.35412 27635 ft 451 kts 252°
2026-04-13 17:00 49.39141 -15.39850 27639 ft 451 kts 252°
2026-04-13 17:00 49.37923 -15.44283 27631 ft 450 kts 252°
2026-04-13 17:00 49.36704 -15.48711 27652 ft 451 kts 252°
2026-04-13 17:01 49.35482 -15.53142 27650 ft 451 kts 252°
2026-04-13 17:01 49.34260 -15.57563 27650 ft 450 kts 252°
2026-04-13 17:01 49.33036 -15.61982 27646 ft 450 kts 252°
2026-04-13 17:01 49.31812 -15.66393 27653 ft 450 kts 252°
2026-04-13 17:02 49.30587 -15.70803 27656 ft 450 kts 252°
2026-04-13 17:02 49.29360 -15.75207 27635 ft 450 kts 252°
2026-04-13 17:02 49.28131 -15.79611 27641 ft 449 kts 252°
2026-04-13 17:02 49.26903 -15.84005 27648 ft 449 kts 252°
2026-04-13 17:03 49.25673 -15.88397 27653 ft 449 kts 252°
2026-04-13 17:03 49.24441 -15.92789 27659 ft 449 kts 252°
2026-04-13 17:03 49.23207 -15.97178 27656 ft 449 kts 252°
2026-04-13 17:03 49.21971 -16.01568 27651 ft 449 kts 252°
2026-04-13 17:04 49.20734 -16.05953 27658 ft 449 kts 252°
2026-04-13 17:04 49.19495 -16.10338 27657 ft 449 kts 252°
2026-04-13 17:04 49.18253 -16.14725 27654 ft 450 kts 251°
2026-04-13 17:04 49.17011 -16.19103 27659 ft 449 kts 251°
2026-04-13 17:05 49.15766 -16.23485 27660 ft 449 kts 251°
2026-04-13 17:05 49.14521 -16.27856 27662 ft 449 kts 251°
2026-04-13 17:05 49.13273 -16.32232 27668 ft 449 kts 251°
2026-04-13 17:05 49.12025 -16.36597 27663 ft 449 kts 251°
2026-04-13 17:06 49.10777 -16.40958 27659 ft 449 kts 251°
2026-04-13 17:06 49.09525 -16.45324 27665 ft 449 kts 251°
2026-04-13 17:06 49.08273 -16.49679 27663 ft 449 kts 251°
2026-04-13 17:06 49.07019 -16.54036 27651 ft 448 kts 251°
2026-04-13 17:07 49.05767 -16.58375 27654 ft 447 kts 251°
2026-04-13 17:07 49.04515 -16.62708 27651 ft 446 kts 250°
2026-04-13 17:07 49.03265 -16.67027 27671 ft 445 kts 250°
2026-04-13 17:07 49.02015 -16.71338 27651 ft 444 kts 250°
2026-04-13 17:08 49.00766 -16.75641 27673 ft 444 kts 250°
2026-04-13 17:08 48.99517 -16.79934 27659 ft 443 kts 250°
2026-04-13 17:08 48.98267 -16.84222 27659 ft 443 kts 250°
2026-04-13 17:08 48.97017 -16.88505 27678 ft 443 kts 250°
2026-04-13 17:09 48.95764 -16.92790 27680 ft 443 kts 250°
2026-04-13 17:09 48.94511 -16.97065 27664 ft 442 kts 250°
2026-04-13 17:09 48.93258 -17.01334 27665 ft 442 kts 250°
2026-04-13 17:09 48.92005 -17.05594 27649 ft 441 kts 250°
2026-04-13 17:10 48.90750 -17.09854 27664 ft 441 kts 250°
2026-04-13 17:10 48.89496 -17.14106 27667 ft 441 kts 250°
2026-04-13 17:10 48.88238 -17.18360 27669 ft 441 kts 250°
2026-04-13 17:10 48.86978 -17.22615 27673 ft 442 kts 250°
2026-04-13 17:11 48.85718 -17.26866 27681 ft 442 kts 250°
2026-04-13 17:11 48.84471 -17.31062 27666 ft 442 kts 249°
2026-04-13 17:11 48.83205 -17.35314 27672 ft 442 kts 249°
2026-04-13 17:11 48.81939 -17.39560 27675 ft 441 kts 249°
2026-04-13 17:12 48.80673 -17.43797 27679 ft 441 kts 249°
2026-04-13 17:12 48.79406 -17.48033 27675 ft 441 kts 249°
2026-04-13 17:12 48.78138 -17.52261 27675 ft 441 kts 249°
2026-04-13 17:12 48.76869 -17.56487 27678 ft 440 kts 249°
2026-04-13 17:13 48.75600 -17.60706 27678 ft 440 kts 249°
2026-04-13 17:13 48.74328 -17.64927 27678 ft 440 kts 249°
2026-04-13 17:13 48.73057 -17.69139 27678 ft 440 kts 249°
2026-04-13 17:13 48.71785 -17.73349 27669 ft 439 kts 249°
2026-04-13 17:14 48.70512 -17.77551 27672 ft 439 kts 249°
2026-04-13 17:14 48.69238 -17.81752 27677 ft 439 kts 249°
2026-04-13 17:14 48.67963 -17.85949 27677 ft 439 kts 249°
2026-04-13 17:14 48.66684 -17.90148 27678 ft 439 kts 249°
2026-04-13 17:15 48.65822 -17.92978 27680 ft 439 kts 249°
2026-04-13 17:15 48.64558 -17.97119 27686 ft 439 kts 249°
2026-04-13 17:15 48.63277 -18.01309 27684 ft 439 kts 249°
2026-04-13 17:15 48.61994 -18.05497 27687 ft 439 kts 249°
2026-04-13 17:16 48.60707 -18.09692 27684 ft 440 kts 249°
2026-04-13 17:16 48.59419 -18.13882 27686 ft 440 kts 249°
2026-04-13 17:16 48.58132 -18.18064 27686 ft 440 kts 249°
2026-04-13 17:16 48.56839 -18.22256 27685 ft 440 kts 248°
2026-04-13 17:17 48.55548 -18.26437 27685 ft 440 kts 248°
2026-04-13 17:17 48.54252 -18.30625 27689 ft 440 kts 248°
2026-04-13 17:17 48.52958 -18.34800 27686 ft 440 kts 248°
2026-04-13 17:17 48.51659 -18.38983 27686 ft 440 kts 248°
2026-04-13 17:18 48.50359 -18.43165 27692 ft 440 kts 248°
2026-04-13 17:18 48.49059 -18.47340 27686 ft 440 kts 248°
2026-04-13 17:18 48.47758 -18.51508 27686 ft 439 kts 248°
2026-04-13 17:18 48.46457 -18.55672 27681 ft 439 kts 248°
2026-04-13 17:19 48.45154 -18.59834 27683 ft 439 kts 248°
2026-04-13 17:19 48.43851 -18.63988 27680 ft 439 kts 248°
2026-04-13 17:19 48.42547 -18.68141 27687 ft 439 kts 248°
2026-04-13 17:19 48.41241 -18.72293 27688 ft 439 kts 248°
2026-04-13 17:20 48.39933 -18.76440 27692 ft 439 kts 248°
2026-04-13 17:20 48.38622 -18.80597 27690 ft 440 kts 248°
2026-04-13 17:20 48.37308 -18.84752 27695 ft 440 kts 247°
2026-04-13 17:20 48.35992 -18.88906 27694 ft 440 kts 247°
2026-04-13 17:21 48.34675 -18.93058 27691 ft 440 kts 247°
2026-04-13 17:21 48.33357 -18.97206 27692 ft 440 kts 247°
2026-04-13 17:21 48.32037 -19.01352 27694 ft 440 kts 247°
2026-04-13 17:21 48.30716 -19.05496 27692 ft 440 kts 247°
2026-04-13 17:22 48.29410 -19.09588 27692 ft 440 kts 247°
2026-04-13 17:22 48.28086 -19.13726 27692 ft 440 kts 247°
2026-04-13 17:22 48.26761 -19.17862 27692 ft 440 kts 247°
2026-04-13 17:22 48.25435 -19.21992 27690 ft 439 kts 247°
2026-04-13 17:23 48.24107 -19.26124 27699 ft 439 kts 247°
2026-04-13 17:23 48.22780 -19.30246 27697 ft 439 kts 246°
2026-04-13 17:23 48.21452 -19.34364 27693 ft 439 kts 246°
2026-04-13 17:23 48.20127 -19.38470 27697 ft 438 kts 246°
2026-04-13 17:24 48.18796 -19.42583 27696 ft 438 kts 246°
2026-04-13 17:24 48.17465 -19.46692 27694 ft 438 kts 246°
2026-04-13 17:24 48.16134 -19.50792 27695 ft 438 kts 246°
2026-04-13 17:24 48.14800 -19.54897 27696 ft 438 kts 246°
2026-04-13 17:25 48.13465 -19.58995 27703 ft 438 kts 246°
2026-04-13 17:25 48.12129 -19.63093 27698 ft 438 kts 246°
2026-04-13 17:25 48.10791 -19.67189 27692 ft 438 kts 246°
2026-04-13 17:25 48.09453 -19.71280 27692 ft 438 kts 246°
2026-04-13 17:26 48.08114 -19.75366 27693 ft 438 kts 246°
2026-04-13 17:26 48.06773 -19.79454 27695 ft 438 kts 246°
2026-04-13 17:26 48.05431 -19.83536 27700 ft 438 kts 246°
2026-04-13 17:26 48.04088 -19.87617 27701 ft 438 kts 246°
2026-04-13 17:27 48.01397 -19.95775 27698 ft 438 kts 245°
2026-04-13 17:27 48.00076 -19.99864 27697 ft 437 kts 248°
2026-04-13 17:27 47.98963 -20.04082 27700 ft 436 kts 252°
2026-04-13 17:28 47.97963 -20.08358 27701 ft 436 kts 251°
2026-04-13 17:28 47.96954 -20.12568 27698 ft 437 kts 251°
2026-04-13 17:28 47.95921 -20.16824 27697 ft 437 kts 251°
2026-04-13 17:28 47.94882 -20.21080 27699 ft 437 kts 251°
2026-04-13 17:29 47.93844 -20.25317 27698 ft 437 kts 251°
2026-04-13 17:29 47.92795 -20.29592 27698 ft 437 kts 251°
2026-04-13 17:29 47.91749 -20.33850 27679 ft 437 kts 251°
2026-04-13 17:29 47.90704 -20.38100 27695 ft 437 kts 251°
2026-04-13 17:30 47.89656 -20.42356 27695 ft 437 kts 251°
2026-04-13 17:30 47.88609 -20.46604 27702 ft 437 kts 251°
2026-04-13 17:30 47.87556 -20.50863 27699 ft 438 kts 251°
2026-04-13 17:30 47.86504 -20.55116 27694 ft 438 kts 251°
2026-04-13 17:31 47.85449 -20.59369 27702 ft 438 kts 251°
2026-04-13 17:31 47.84393 -20.63622 27697 ft 438 kts 251°
2026-04-13 17:31 47.83334 -20.67876 27695 ft 438 kts 251°
2026-04-13 17:31 47.82273 -20.72128 27700 ft 438 kts 250°
2026-04-13 17:32 47.81210 -20.76383 27692 ft 438 kts 250°
2026-04-13 17:32 47.80149 -20.80620 27687 ft 437 kts 250°
2026-04-13 17:32 47.79087 -20.84856 27683 ft 437 kts 250°
2026-04-13 17:32 47.78024 -20.89084 27684 ft 436 kts 250°
2026-04-13 17:33 47.76962 -20.93301 27688 ft 436 kts 250°
2026-04-13 17:33 47.75899 -20.97518 27686 ft 436 kts 250°
2026-04-13 17:33 47.74832 -21.01740 27689 ft 436 kts 250°
2026-04-13 17:33 47.73766 -21.05949 27692 ft 435 kts 250°
2026-04-13 17:34 47.71631 -21.14358 27684 ft 435 kts 250°
2026-04-13 17:34 47.70563 -21.18556 27683 ft 434 kts 250°
2026-04-13 17:34 47.69494 -21.22745 27683 ft 434 kts 250°
2026-04-13 17:35 47.68426 -21.26926 27684 ft 434 kts 250°
2026-04-13 17:35 47.67354 -21.31113 27679 ft 434 kts 250°
2026-04-13 17:35 47.66284 -21.35288 27679 ft 434 kts 250°
2026-04-13 17:35 47.65207 -21.39478 27686 ft 434 kts 250°
2026-04-13 17:36 47.64132 -21.43653 27680 ft 434 kts 250°
2026-04-13 17:36 47.63056 -21.47830 27693 ft 434 kts 249°
2026-04-13 17:36 47.61992 -21.51948 27684 ft 433 kts 249°
2026-04-13 17:36 47.60898 -21.56176 27682 ft 433 kts 249°
2026-04-13 17:37 47.59818 -21.60341 27672 ft 433 kts 249°
2026-04-13 17:37 47.58753 -21.64442 27676 ft 432 kts 249°
2026-04-13 17:37 47.57673 -21.68591 27679 ft 432 kts 249°
2026-04-13 17:37 47.56590 -21.72744 27683 ft 432 kts 249°
2026-04-13 17:38 47.55508 -21.76888 27679 ft 432 kts 249°
2026-04-13 17:38 47.54425 -21.81030 27676 ft 432 kts 249°
2026-04-13 17:38 47.53340 -21.85171 27676 ft 432 kts 249°
2026-04-13 17:38 47.52252 -21.89315 27674 ft 432 kts 249°
2026-04-13 17:39 47.51163 -21.93452 27673 ft 432 kts 249°
2026-04-13 17:39 47.50073 -21.97592 27673 ft 432 kts 249°
2026-04-13 17:39 47.48981 -22.01729 27674 ft 432 kts 249°
2026-04-13 17:39 47.47888 -22.05861 27668 ft 432 kts 249°
2026-04-13 17:40 47.46794 -22.09993 27668 ft 432 kts 249°
2026-04-13 17:40 47.45695 -22.14132 27668 ft 432 kts 249°
2026-04-13 17:40 47.44596 -22.18266 27668 ft 432 kts 249°
2026-04-13 17:40 47.43497 -22.22395 27675 ft 432 kts 249°
2026-04-13 17:41 47.42398 -22.26514 27665 ft 431 kts 249°
2026-04-13 17:41 47.41298 -22.30631 27663 ft 431 kts 249°
2026-04-13 17:41 47.40199 -22.34737 27661 ft 430 kts 249°
2026-04-13 17:41 47.39097 -22.38845 27648 ft 430 kts 249°
2026-04-13 17:42 47.37999 -22.42931 27659 ft 429 kts 249°
2026-04-13 17:42 47.36897 -22.47028 27661 ft 429 kts 249°
2026-04-13 17:42 47.35793 -22.51122 27661 ft 429 kts 249°
2026-04-13 17:42 47.34690 -22.55207 27662 ft 429 kts 249°
2026-04-13 17:43 47.33587 -22.59283 27671 ft 428 kts 248°
2026-04-13 17:43 47.32482 -22.63361 27656 ft 428 kts 248°
2026-04-13 17:43 47.31378 -22.67427 27654 ft 427 kts 248°
2026-04-13 17:43 47.30273 -22.71492 27665 ft 427 kts 248°
2026-04-13 17:44 47.29170 -22.75542 27655 ft 427 kts 248°
2026-04-13 17:44 47.28063 -22.79600 27653 ft 426 kts 248°
2026-04-13 17:44 47.26956 -22.83650 27654 ft 426 kts 248°
2026-04-13 17:44 47.25847 -22.87700 27651 ft 426 kts 248°
2026-04-13 17:45 47.24738 -22.91743 27656 ft 426 kts 248°
2026-04-13 17:45 47.23627 -22.95786 27660 ft 426 kts 248°
2026-04-13 17:45 47.22518 -22.99818 27658 ft 425 kts 248°
2026-04-13 17:45 47.21408 -23.03846 27651 ft 424 kts 248°
2026-04-13 17:46 47.20299 -23.07862 27645 ft 423 kts 248°
2026-04-13 17:46 47.19206 -23.11814 27648 ft 423 kts 248°
2026-04-13 17:46 47.18098 -23.15814 27647 ft 422 kts 248°
2026-04-13 17:46 47.16988 -23.19812 27645 ft 422 kts 248°
2026-04-13 17:47 47.15880 -23.23800 27644 ft 422 kts 248°
2026-04-13 17:47 47.14771 -23.27784 27651 ft 422 kts 248°
2026-04-13 17:47 47.13660 -23.31764 27659 ft 422 kts 248°
2026-04-13 17:47 47.12545 -23.35756 27655 ft 423 kts 248°
2026-04-13 17:48 47.11429 -23.39744 27655 ft 423 kts 248°
2026-04-13 17:48 47.10307 -23.43747 27648 ft 424 kts 248°
2026-04-13 17:48 47.09185 -23.47744 27652 ft 423 kts 248°
2026-04-13 17:48 47.08063 -23.51733 27638 ft 423 kts 248°
2026-04-13 17:49 47.06940 -23.55721 27640 ft 423 kts 248°
2026-04-13 17:49 47.05815 -23.59706 27630 ft 422 kts 248°
2026-04-13 17:49 47.04695 -23.63671 27640 ft 420 kts 248°
2026-04-13 17:49 47.03576 -23.67624 27631 ft 420 kts 248°
2026-04-13 17:50 47.02458 -23.71568 27641 ft 418 kts 247°
2026-04-13 17:50 47.01341 -23.75502 27636 ft 418 kts 247°
2026-04-13 17:50 47.00224 -23.79427 27629 ft 417 kts 247°
2026-04-13 17:50 46.99108 -23.83344 27630 ft 417 kts 247°
2026-04-13 17:51 46.97989 -23.87266 27611 ft 417 kts 247°
2026-04-13 17:51 46.96869 -23.91185 27635 ft 418 kts 247°
2026-04-13 17:51 46.95746 -23.95107 27627 ft 419 kts 247°
2026-04-13 17:51 46.94618 -23.99039 27634 ft 420 kts 247°
2026-04-13 17:52 46.94168 -24.00607 27661 ft 420 kts 247°
2026-04-13 17:52 46.93033 -24.04555 27648 ft 421 kts 247°
2026-04-13 17:52 46.91895 -24.08507 27646 ft 422 kts 247°
2026-04-13 17:53 46.91140 -24.11127 27644 ft 422 kts 247°
2026-04-13 17:53 46.89629 -24.16360 27640 ft 422 kts 247°
2026-04-13 17:53 46.88488 -24.20304 27636 ft 422 kts 247°
2026-04-13 17:53 46.87343 -24.24256 27633 ft 422 kts 247°
2026-04-13 17:54 46.86199 -24.28199 27633 ft 421 kts 247°
2026-04-13 17:54 46.85053 -24.32139 27642 ft 421 kts 247°
2026-04-13 17:54 46.83909 -24.36070 27645 ft 421 kts 246°
2026-04-13 17:54 46.82763 -24.40002 27628 ft 420 kts 246°
2026-04-13 17:55 46.81620 -24.43915 27636 ft 419 kts 246°
2026-04-13 17:55 46.80474 -24.47832 27623 ft 419 kts 246°
2026-04-13 17:55 46.79330 -24.51737 27618 ft 418 kts 246°
2026-04-13 17:55 46.78187 -24.55629 27618 ft 418 kts 246°
2026-04-13 17:56 46.77042 -24.59525 27619 ft 417 kts 246°
2026-04-13 17:56 46.75895 -24.63421 27622 ft 417 kts 246°
2026-04-13 17:56 46.74751 -24.67303 27625 ft 417 kts 246°
2026-04-13 17:56 46.73605 -24.71183 27649 ft 417 kts 246°
2026-04-13 17:57 46.72454 -24.75072 27638 ft 417 kts 246°
2026-04-13 17:57 46.71306 -24.78950 27629 ft 418 kts 246°
2026-04-13 17:57 46.70151 -24.82841 27620 ft 418 kts 246°
2026-04-13 17:57 46.68996 -24.86728 27619 ft 418 kts 246°
2026-04-13 17:58 46.67841 -24.90607 27621 ft 418 kts 246°
2026-04-13 17:58 46.66682 -24.94495 27614 ft 418 kts 246°
2026-04-13 17:58 46.65524 -24.98375 27616 ft 418 kts 246°
2026-04-13 17:58 46.64364 -25.02251 27614 ft 418 kts 246°
2026-04-13 17:59 46.63203 -25.06129 27624 ft 418 kts 245°
2026-04-13 17:59 46.62041 -25.10003 27622 ft 418 kts 245°
2026-04-13 17:59 46.60880 -25.13869 27619 ft 418 kts 245°
2026-04-13 17:59 46.59716 -25.17735 27613 ft 417 kts 245°
2026-04-13 18:00 46.58551 -25.21599 27615 ft 417 kts 245°
2026-04-13 18:00 46.57385 -25.25460 27629 ft 417 kts 245°
2026-04-13 18:00 46.56220 -25.29314 27632 ft 417 kts 245°
2026-04-13 18:00 46.55054 -25.33167 27629 ft 417 kts 245°
2026-04-13 18:01 46.53887 -25.37015 27626 ft 417 kts 245°
2026-04-13 18:01 46.52717 -25.40867 27621 ft 417 kts 245°
2026-04-13 18:01 46.51548 -25.44712 27625 ft 417 kts 245°
2026-04-13 18:01 46.50376 -25.48560 27623 ft 417 kts 245°
2026-04-13 18:02 46.49201 -25.52410 27616 ft 417 kts 245°
2026-04-13 18:02 46.48042 -25.56202 27617 ft 417 kts 245°
2026-04-13 18:02 46.46866 -25.60044 27623 ft 417 kts 245°
2026-04-13 18:02 46.45673 -25.63938 27624 ft 417 kts 245°
2026-04-13 18:03 46.44508 -25.67732 27617 ft 417 kts 245°
2026-04-13 18:03 46.43326 -25.71578 27625 ft 418 kts 245°
2026-04-13 18:03 46.42143 -25.75419 27647 ft 418 kts 244°
2026-04-13 18:03 46.40957 -25.79265 27621 ft 419 kts 244°
2026-04-13 18:04 46.39768 -25.83114 27618 ft 418 kts 244°
2026-04-13 18:04 46.38578 -25.86963 27611 ft 418 kts 244°
2026-04-13 18:04 46.37389 -25.90799 27605 ft 418 kts 244°
2026-04-13 18:04 46.36199 -25.94635 27606 ft 417 kts 244°
2026-04-13 18:05 46.35411 -25.97173 27609 ft 417 kts 244°
2026-04-13 18:05 46.34222 -26.00995 27611 ft 417 kts 244°
2026-04-13 18:05 46.33031 -26.04818 27599 ft 417 kts 244°
2026-04-13 18:05 46.31840 -26.08637 27601 ft 416 kts 244°
2026-04-13 18:06 46.30646 -26.12456 27614 ft 416 kts 243°
2026-04-13 18:06 46.29453 -26.16270 27607 ft 416 kts 243°
2026-04-13 18:06 46.28259 -26.20080 27603 ft 416 kts 243°
2026-04-13 18:06 46.27065 -26.23883 27600 ft 416 kts 243°
2026-04-13 18:07 46.25870 -26.27686 27604 ft 416 kts 243°
2026-04-13 18:07 46.24673 -26.31488 27594 ft 416 kts 243°
2026-04-13 18:07 46.23475 -26.35289 27596 ft 415 kts 243°
2026-04-13 18:07 46.22276 -26.39086 27594 ft 415 kts 243°
2026-04-13 18:08 46.21077 -26.42878 27596 ft 415 kts 243°
2026-04-13 18:08 46.19877 -26.46669 27589 ft 415 kts 243°
2026-04-13 18:08 46.18690 -26.50410 27592 ft 415 kts 243°
2026-04-13 18:08 46.17489 -26.54191 27592 ft 414 kts 243°
2026-04-13 18:09 46.16290 -26.57961 27594 ft 414 kts 243°
2026-04-13 18:09 46.15088 -26.61736 27597 ft 414 kts 243°
2026-04-13 18:09 46.13888 -26.65496 27595 ft 413 kts 243°
2026-04-13 18:09 46.12685 -26.69263 27594 ft 413 kts 243°
2026-04-13 18:10 46.11482 -26.73022 27593 ft 413 kts 243°
2026-04-13 18:10 46.10280 -26.76774 27621 ft 413 kts 242°
2026-04-13 18:10 46.09076 -26.80528 27602 ft 412 kts 242°
2026-04-13 18:10 46.07874 -26.84271 27598 ft 411 kts 242°
2026-04-13 18:11 46.06672 -26.88006 27596 ft 411 kts 242°
2026-04-13 18:11 46.05470 -26.91733 27591 ft 410 kts 242°
2026-04-13 18:11 46.04270 -26.95452 27589 ft 409 kts 242°
2026-04-13 18:11 46.03070 -26.99165 27590 ft 409 kts 242°
2026-04-13 18:12 46.01871 -27.02868 27589 ft 409 kts 242°
2026-04-13 18:12 46.00669 -27.06577 27591 ft 409 kts 242°
2026-04-13 18:12 45.99467 -27.10279 27605 ft 409 kts 242°
2026-04-13 18:12 45.98265 -27.13977 27601 ft 408 kts 242°
2026-04-13 18:13 45.97065 -27.17664 27595 ft 407 kts 242°
2026-04-13 18:13 45.95864 -27.21344 27552 ft 406 kts 242°
2026-04-13 18:13 45.94666 -27.25012 27578 ft 406 kts 242°
2026-04-13 18:13 45.93466 -27.28685 27581 ft 406 kts 242°
2026-04-13 18:14 45.92263 -27.32362 27584 ft 407 kts 242°
2026-04-13 18:14 45.91058 -27.36038 27587 ft 407 kts 242°
2026-04-13 18:14 45.89852 -27.39714 27585 ft 408 kts 242°
2026-04-13 18:14 45.88641 -27.43395 27612 ft 408 kts 242°
2026-04-13 18:15 45.87430 -27.47074 27610 ft 408 kts 242°
2026-04-13 18:15 45.86213 -27.50762 27587 ft 408 kts 242°
2026-04-13 18:15 45.85015 -27.54393 27569 ft 407 kts 242°
2026-04-13 18:15 45.83809 -27.58044 27581 ft 405 kts 242°
2026-04-13 18:16 45.82602 -27.61693 27595 ft 404 kts 241°
2026-04-13 18:16 45.81393 -27.65338 27569 ft 404 kts 242°
2026-04-13 18:16 45.80188 -27.68967 27586 ft 403 kts 241°
2026-04-13 18:16 45.78985 -27.72586 27579 ft 402 kts 241°
2026-04-13 18:17 45.77782 -27.76198 27576 ft 402 kts 241°
2026-04-13 18:17 45.76581 -27.79802 27586 ft 401 kts 241°
2026-04-13 18:17 45.75382 -27.83394 27589 ft 400 kts 241°
2026-04-13 18:17 45.74177 -27.86996 27585 ft 400 kts 241°
2026-04-13 18:18 45.72979 -27.90576 27589 ft 399 kts 241°
2026-04-13 18:18 45.71777 -27.94163 27595 ft 399 kts 241°
2026-04-13 18:18 45.70574 -27.97745 27593 ft 400 kts 241°
2026-04-13 18:18 45.69370 -28.01327 27584 ft 400 kts 241°
2026-04-13 18:19 45.68163 -28.04912 27577 ft 400 kts 241°
2026-04-13 18:19 45.66956 -28.08493 27584 ft 400 kts 241°
2026-04-13 18:19 45.65748 -28.12075 27598 ft 400 kts 240°
2026-04-13 18:19 45.64538 -28.15655 27593 ft 400 kts 240°
2026-04-13 18:20 45.63329 -28.19227 27591 ft 399 kts 240°
2026-04-13 18:20 45.62121 -28.22792 27585 ft 399 kts 240°
2026-04-13 18:20 45.60932 -28.26296 27588 ft 398 kts 240°
2026-04-13 18:20 45.59705 -28.29908 27590 ft 398 kts 240°
2026-04-13 18:21 45.58513 -28.33411 27585 ft 398 kts 240°
2026-04-13 18:21 45.57305 -28.36957 27589 ft 397 kts 240°
2026-04-13 18:21 45.56097 -28.40497 27584 ft 397 kts 240°
2026-04-13 18:21 45.54886 -28.44043 27612 ft 397 kts 240°
2026-04-13 18:22 45.53674 -28.47587 27600 ft 397 kts 240°
2026-04-13 18:22 45.52464 -28.51119 27595 ft 397 kts 240°
2026-04-13 18:22 45.51253 -28.54649 27589 ft 396 kts 240°
2026-04-13 18:22 45.50041 -28.58179 27591 ft 396 kts 240°
2026-04-13 18:23 45.48834 -28.61691 27593 ft 396 kts 240°
2026-04-13 18:23 45.47619 -28.65218 27589 ft 395 kts 240°
2026-04-13 18:23 45.46408 -28.68730 27588 ft 395 kts 240°
2026-04-13 18:23 45.45195 -28.72245 27587 ft 395 kts 240°
2026-04-13 18:24 45.43982 -28.75754 27593 ft 395 kts 240°
2026-04-13 18:24 45.42769 -28.79258 27590 ft 395 kts 240°
2026-04-13 18:24 45.41552 -28.82767 27593 ft 395 kts 240°
2026-04-13 18:24 45.40336 -28.86273 27593 ft 395 kts 240°
2026-04-13 18:25 45.39117 -28.89779 27594 ft 395 kts 240°
2026-04-13 18:25 45.37899 -28.93281 27596 ft 395 kts 240°
2026-04-13 18:25 45.36679 -28.96783 27596 ft 395 kts 240°
2026-04-13 18:25 45.35457 -29.00286 27595 ft 395 kts 240°
2026-04-13 18:26 45.34234 -29.03784 27607 ft 396 kts 240°
2026-04-13 18:26 45.33008 -29.07291 27622 ft 396 kts 240°
2026-04-13 18:26 45.31782 -29.10791 27604 ft 396 kts 240°
2026-04-13 18:26 45.30556 -29.14287 27601 ft 395 kts 240°
2026-04-13 18:27 45.29331 -29.17777 27606 ft 395 kts 240°
2026-04-13 18:27 45.28104 -29.21265 27603 ft 394 kts 240°
2026-04-13 18:27 45.26880 -29.24744 27602 ft 394 kts 240°
2026-04-13 18:27 45.25653 -29.28223 27605 ft 394 kts 240°
2026-04-13 18:28 45.24429 -29.31692 27604 ft 393 kts 239°
2026-04-13 18:28 45.23203 -29.35161 27603 ft 393 kts 239°
2026-04-13 18:28 45.21976 -29.38628 27642 ft 393 kts 239°
2026-04-13 18:28 45.20746 -29.42098 27617 ft 394 kts 239°
2026-04-13 18:29 45.19517 -29.45563 27627 ft 394 kts 239°
2026-04-13 18:29 45.18285 -29.49030 27623 ft 393 kts 239°
2026-04-13 18:29 45.17053 -29.52493 27614 ft 393 kts 239°
2026-04-13 18:29 45.15823 -29.55949 27615 ft 393 kts 239°
2026-04-13 18:30 45.14593 -29.59397 27616 ft 392 kts 239°
2026-04-13 18:30 45.13366 -29.62836 27618 ft 391 kts 239°
2026-04-13 18:30 45.12137 -29.66274 27617 ft 391 kts 239°
2026-04-13 18:30 45.10908 -29.69707 27660 ft 390 kts 239°
2026-04-13 18:31 45.09679 -29.73136 27627 ft 390 kts 239°
2026-04-13 18:31 45.08453 -29.76554 27627 ft 389 kts 239°
2026-04-13 18:31 45.07229 -29.79961 27608 ft 388 kts 239°
2026-04-13 18:31 45.06007 -29.83359 27630 ft 387 kts 239°
2026-04-13 18:32 45.04784 -29.86757 27613 ft 387 kts 239°
2026-04-13 18:32 45.03562 -29.90145 27614 ft 387 kts 239°
2026-04-13 18:32 45.02336 -29.93540 27611 ft 387 kts 239°
2026-04-13 18:32 45.01206 -29.97006 27630 ft 390 kts 243°
2026-04-13 18:33 45.00267 -30.00603 27659 ft 392 kts 245°
2026-04-13 18:33 44.99425 -30.04273 27632 ft 393 kts 247°
2026-04-13 18:33 44.98747 -30.08037 27629 ft 396 kts 250°
2026-04-13 18:34 44.97599 -30.15644 27629 ft 396 kts 250°
2026-04-13 18:34 44.97027 -30.19443 27626 ft 395 kts 250°
2026-04-13 18:34 44.96455 -30.23233 27627 ft 395 kts 250°
2026-04-13 18:34 44.95878 -30.27029 27627 ft 395 kts 250°
2026-04-13 18:35 44.95301 -30.30809 27628 ft 394 kts 250°
2026-04-13 18:35 44.94721 -30.34596 27631 ft 394 kts 250°
2026-04-13 18:35 44.94140 -30.38370 27667 ft 394 kts 250°
2026-04-13 18:35 44.93557 -30.42147 27635 ft 394 kts 250°
2026-04-13 18:36 44.92974 -30.45919 27636 ft 393 kts 250°
2026-04-13 18:36 44.92389 -30.49692 27621 ft 393 kts 250°
2026-04-13 18:36 44.91803 -30.53456 27625 ft 393 kts 250°
2026-04-13 18:36 44.91217 -30.57221 27626 ft 393 kts 250°
2026-04-13 18:37 44.90828 -30.59711 27628 ft 392 kts 250°
2026-04-13 18:37 44.90041 -30.64740 27626 ft 392 kts 250°
2026-04-13 18:37 44.89451 -30.68497 27629 ft 392 kts 250°
2026-04-13 18:37 44.88860 -30.72253 27631 ft 392 kts 250°
2026-04-13 18:38 44.88268 -30.76007 27665 ft 392 kts 250°
2026-04-13 18:38 44.87675 -30.79763 27632 ft 393 kts 250°
2026-04-13 18:38 44.87081 -30.83515 27640 ft 392 kts 250°
2026-04-13 18:38 44.86485 -30.87265 27633 ft 392 kts 250°
2026-04-13 18:39 44.85890 -30.91010 27629 ft 391 kts 250°
2026-04-13 18:39 44.85294 -30.94750 27630 ft 391 kts 250°
2026-04-13 18:39 44.84696 -30.98489 27630 ft 391 kts 250°
2026-04-13 18:39 44.84098 -31.02224 27633 ft 391 kts 250°
2026-04-13 18:40 44.83498 -31.05961 27636 ft 391 kts 250°
2026-04-13 18:40 44.82897 -31.09692 27634 ft 391 kts 250°
2026-04-13 18:40 44.82296 -31.13421 27653 ft 390 kts 249°
2026-04-13 18:40 44.81693 -31.17152 27635 ft 390 kts 249°
2026-04-13 18:41 44.81091 -31.20873 27637 ft 390 kts 249°
2026-04-13 18:41 44.80486 -31.24597 27633 ft 390 kts 249°
2026-04-13 18:41 44.79882 -31.28315 27628 ft 389 kts 249°
2026-04-13 18:41 44.79276 -31.32027 27629 ft 389 kts 249°
2026-04-13 18:42 44.78670 -31.35736 27629 ft 389 kts 249°
2026-04-13 18:42 44.78071 -31.39393 27627 ft 389 kts 249°
2026-04-13 18:42 44.77455 -31.43147 27643 ft 388 kts 249°
2026-04-13 18:42 44.76854 -31.46801 27673 ft 389 kts 249°
2026-04-13 18:43 44.76242 -31.50512 27664 ft 389 kts 249°
2026-04-13 18:43 44.75629 -31.54222 27639 ft 389 kts 249°
2026-04-13 18:43 44.75008 -31.57972 27640 ft 389 kts 249°
2026-04-13 18:43 44.74395 -31.61675 27632 ft 388 kts 249°
2026-04-13 18:44 44.73789 -31.65321 27630 ft 388 kts 249°
2026-04-13 18:44 44.73175 -31.69007 27629 ft 387 kts 249°
2026-04-13 18:44 44.72559 -31.72693 27631 ft 387 kts 249°
2026-04-13 18:44 44.71943 -31.76379 27628 ft 387 kts 249°
2026-04-13 18:45 44.71325 -31.80058 27626 ft 387 kts 249°
2026-04-13 18:45 44.70707 -31.83739 27626 ft 387 kts 249°
2026-04-13 18:45 44.70087 -31.87415 27676 ft 387 kts 249°
2026-04-13 18:45 44.69465 -31.91101 27637 ft 387 kts 249°
2026-04-13 18:46 44.68843 -31.94779 27639 ft 387 kts 249°
2026-04-13 18:46 44.68219 -31.98459 27636 ft 387 kts 249°
2026-04-13 18:46 44.67594 -32.02143 27632 ft 387 kts 249°
2026-04-13 18:46 44.66967 -32.05825 27632 ft 387 kts 249°
2026-04-13 18:47 44.66340 -32.09503 27630 ft 387 kts 249°
2026-04-13 18:47 44.65711 -32.13185 27629 ft 387 kts 249°
2026-04-13 18:47 44.65082 -32.16857 27627 ft 387 kts 249°
2026-04-13 18:47 44.64450 -32.20538 27630 ft 387 kts 249°
2026-04-13 18:48 44.63818 -32.24212 27635 ft 387 kts 249°
2026-04-13 18:48 44.63185 -32.27888 27631 ft 387 kts 249°
2026-04-13 18:48 44.62550 -32.31563 27628 ft 387 kts 249°
2026-04-13 18:48 44.61914 -32.35238 27628 ft 387 kts 249°
2026-04-13 18:49 44.61278 -32.38908 27623 ft 387 kts 249°
2026-04-13 18:49 44.60639 -32.42582 27623 ft 387 kts 249°
2026-04-13 18:49 44.60000 -32.46251 27627 ft 387 kts 249°
2026-04-13 18:49 44.59359 -32.49926 27626 ft 387 kts 249°
2026-04-13 18:50 44.58718 -32.53594 27629 ft 387 kts 249°
2026-04-13 18:50 44.58075 -32.57265 27625 ft 387 kts 249°
2026-04-13 18:50 44.57431 -32.60932 27653 ft 387 kts 249°
2026-04-13 18:50 44.56785 -32.64601 27632 ft 388 kts 249°
2026-04-13 18:51 44.56139 -32.68268 27632 ft 387 kts 249°
2026-04-13 18:51 44.55492 -32.71930 27624 ft 387 kts 249°
2026-04-13 18:51 44.54844 -32.75592 27620 ft 387 kts 249°
2026-04-13 18:51 44.54196 -32.79251 27621 ft 386 kts 249°
2026-04-13 18:52 44.54090 -32.79848 27621 ft 386 kts 249°
2026-04-13 18:52 44.53467 -32.83350 27624 ft 386 kts 249°
2026-04-13 18:52 44.52817 -32.86998 27623 ft 386 kts 249°
2026-04-13 18:53 44.52166 -32.90647 27626 ft 386 kts 249°
2026-04-13 18:53 44.51514 -32.94291 27624 ft 386 kts 249°
2026-04-13 18:53 44.50861 -32.97935 27657 ft 386 kts 249°
2026-04-13 18:53 44.50207 -33.01579 27690 ft 386 kts 249°
2026-04-13 18:54 44.49552 -33.05221 27638 ft 386 kts 249°
2026-04-13 18:54 44.48896 -33.08857 27632 ft 384 kts 249°
2026-04-13 18:54 44.48242 -33.12482 27625 ft 384 kts 249°
2026-04-13 18:54 44.47588 -33.16097 27623 ft 383 kts 249°
2026-04-13 18:55 44.46935 -33.19704 27628 ft 382 kts 249°
2026-04-13 18:55 44.46281 -33.23303 27627 ft 382 kts 249°
2026-04-13 18:55 44.45624 -33.26907 27625 ft 381 kts 249°
2026-04-13 18:55 44.44969 -33.30499 27627 ft 381 kts 249°
2026-04-13 18:56 44.44311 -33.34094 27654 ft 381 kts 249°
2026-04-13 18:56 44.43653 -33.37689 27639 ft 381 kts 249°
2026-04-13 18:56 44.42993 -33.41282 27626 ft 381 kts 249°
2026-04-13 18:56 44.42335 -33.44866 27633 ft 381 kts 249°
2026-04-13 18:57 44.41674 -33.48451 27636 ft 381 kts 249°
2026-04-13 18:57 44.41014 -33.52032 27630 ft 380 kts 248°
2026-04-13 18:57 44.40351 -33.55618 27636 ft 380 kts 248°
2026-04-13 18:57 44.39688 -33.59196 27633 ft 380 kts 248°
2026-04-13 18:58 44.39024 -33.62770 27615 ft 380 kts 248°
2026-04-13 18:58 44.38358 -33.66351 27614 ft 380 kts 248°
2026-04-13 18:58 44.37692 -33.69928 27631 ft 381 kts 249°
2026-04-13 18:58 44.37023 -33.73510 27626 ft 381 kts 249°
2026-04-13 18:59 44.36353 -33.77089 27627 ft 381 kts 249°
2026-04-13 18:59 44.35682 -33.80671 27623 ft 381 kts 249°
2026-04-13 18:59 44.35009 -33.84259 27624 ft 381 kts 249°
2026-04-13 18:59 44.34337 -33.87833 27624 ft 382 kts 249°
2026-04-13 19:00 44.33659 -33.91429 27625 ft 382 kts 249°
2026-04-13 19:00 44.32983 -33.95014 27625 ft 382 kts 249°
2026-04-13 19:00 44.32305 -33.98597 27628 ft 382 kts 248°
2026-04-13 19:00 44.31627 -34.02178 27626 ft 382 kts 248°
2026-04-13 19:01 44.30946 -34.05761 27643 ft 383 kts 249°
2026-04-13 19:01 44.30262 -34.09357 27633 ft 384 kts 249°
2026-04-13 19:01 44.29574 -34.12964 27631 ft 384 kts 249°
2026-04-13 19:01 44.28885 -34.16571 27627 ft 385 kts 249°
2026-04-13 19:02 44.28193 -34.20184 27627 ft 386 kts 249°
2026-04-13 19:02 44.27501 -34.23799 27621 ft 386 kts 249°
2026-04-13 19:02 44.26806 -34.27415 27623 ft 386 kts 249°
2026-04-13 19:02 44.26110 -34.31038 27623 ft 386 kts 249°
2026-04-13 19:03 44.25412 -34.34660 27625 ft 387 kts 249°
2026-04-13 19:03 44.24713 -34.38281 27618 ft 387 kts 249°
2026-04-13 19:03 44.24013 -34.41899 27638 ft 388 kts 249°
2026-04-13 19:03 44.23308 -34.45534 27634 ft 389 kts 249°
2026-04-13 19:04 44.22600 -34.49178 27630 ft 390 kts 249°
2026-04-13 19:04 44.21888 -34.52836 27683 ft 391 kts 250°
2026-04-13 19:04 44.21170 -34.56511 27632 ft 395 kts 250°
2026-04-13 19:04 44.20448 -34.60209 27632 ft 396 kts 250°
2026-04-13 19:05 44.19721 -34.63922 27635 ft 398 kts 250°
2026-04-13 19:05 44.18991 -34.67648 27632 ft 399 kts 250°
2026-04-13 19:05 44.18258 -34.71380 27629 ft 400 kts 250°
2026-04-13 19:05 44.17524 -34.75113 27632 ft 400 kts 250°
2026-04-13 19:06 44.16787 -34.78854 27633 ft 401 kts 250°
2026-04-13 19:06 44.16047 -34.82599 27634 ft 401 kts 250°
2026-04-13 19:06 44.15306 -34.86345 27618 ft 402 kts 250°
2026-04-13 19:06 44.14563 -34.90094 27634 ft 402 kts 250°
2026-04-13 19:07 44.13819 -34.93842 27621 ft 401 kts 250°
2026-04-13 19:07 44.13074 -34.97588 27621 ft 401 kts 250°
2026-04-13 19:07 44.12328 -35.01329 27634 ft 401 kts 250°
2026-04-13 19:07 44.11582 -35.05064 27618 ft 400 kts 250°
2026-04-13 19:08 44.10836 -35.08790 27626 ft 400 kts 250°
2026-04-13 19:08 44.10089 -35.12517 27641 ft 400 kts 250°
2026-04-13 19:08 44.09340 -35.16240 27630 ft 400 kts 250°
2026-04-13 19:08 44.08592 -35.19958 27631 ft 399 kts 250°
2026-04-13 19:09 44.07853 -35.23620 27634 ft 399 kts 250°
2026-04-13 19:09 44.07101 -35.27344 27633 ft 399 kts 250°
2026-04-13 19:09 44.06350 -35.31051 27631 ft 399 kts 250°
2026-04-13 19:09 44.05594 -35.34782 27637 ft 400 kts 250°
2026-04-13 19:10 44.04839 -35.38498 27643 ft 400 kts 250°
2026-04-13 19:10 44.04084 -35.42207 27628 ft 400 kts 250°
2026-04-13 19:10 44.03325 -35.45927 27640 ft 400 kts 250°
2026-04-13 19:10 44.02564 -35.49648 27641 ft 401 kts 250°
2026-04-13 19:11 44.01801 -35.53376 27642 ft 402 kts 250°
2026-04-13 19:11 44.01033 -35.57120 27638 ft 403 kts 250°
2026-04-13 19:11 44.00265 -35.60861 27632 ft 403 kts 250°
2026-04-13 19:11 43.99494 -35.64607 27636 ft 404 kts 250°
2026-04-13 19:12 43.98721 -35.68353 27632 ft 404 kts 250°
2026-04-13 19:12 43.97946 -35.72106 27630 ft 404 kts 250°
2026-04-13 19:12 43.97171 -35.75851 27636 ft 404 kts 250°
2026-04-13 19:12 43.96394 -35.79601 27633 ft 404 kts 250°
2026-04-13 19:13 43.95615 -35.83352 27630 ft 404 kts 250°
2026-04-13 19:13 43.94835 -35.87101 27633 ft 404 kts 250°
2026-04-13 19:13 43.94055 -35.90843 27641 ft 404 kts 250°
2026-04-13 19:13 43.93273 -35.94587 27641 ft 404 kts 250°
2026-04-13 19:14 43.92490 -35.98326 27645 ft 404 kts 250°
2026-04-13 19:14 43.91707 -36.02065 27689 ft 404 kts 250°
2026-04-13 19:14 43.90920 -36.05813 27655 ft 406 kts 250°
2026-04-13 19:14 43.90128 -36.09574 27656 ft 407 kts 250°
2026-04-13 19:15 43.89333 -36.13342 27646 ft 408 kts 250°
2026-04-13 19:15 43.88535 -36.17121 27656 ft 409 kts 250°
2026-04-13 19:15 43.87733 -36.20910 27656 ft 411 kts 250°
2026-04-13 19:15 43.86927 -36.24713 27646 ft 412 kts 250°
2026-04-13 19:16 43.86117 -36.28528 27648 ft 413 kts 250°
2026-04-13 19:16 43.85304 -36.32350 27660 ft 414 kts 250°
2026-04-13 19:16 43.84488 -36.36179 27657 ft 415 kts 250°
2026-04-13 19:16 43.83669 -36.40016 27654 ft 415 kts 250°
2026-04-13 19:17 43.82849 -36.43852 27655 ft 415 kts 250°
2026-04-13 19:17 43.82029 -36.47681 27657 ft 415 kts 250°
2026-04-13 19:17 43.81207 -36.51509 27645 ft 415 kts 251°
2026-04-13 19:17 43.80384 -36.55338 27663 ft 415 kts 251°
2026-04-13 19:18 43.79559 -36.59168 27674 ft 415 kts 251°
2026-04-13 19:18 43.78732 -36.62997 27660 ft 415 kts 251°
2026-04-13 19:18 43.77905 -36.66823 27664 ft 415 kts 251°
2026-04-13 19:18 43.77076 -36.70648 27662 ft 415 kts 251°
2026-04-13 19:19 43.76246 -36.74471 27669 ft 415 kts 251°
2026-04-13 19:19 43.75416 -36.78291 27667 ft 415 kts 251°
2026-04-13 19:19 43.74583 -36.82113 27663 ft 415 kts 251°
2026-04-13 19:19 43.73749 -36.85934 27659 ft 415 kts 251°
2026-04-13 19:20 43.72924 -36.89707 27677 ft 416 kts 251°
2026-04-13 19:20 43.72075 -36.93584 27678 ft 416 kts 251°
2026-04-13 19:20 43.71246 -36.97362 27661 ft 417 kts 251°
2026-04-13 19:20 43.70403 -37.01196 27686 ft 417 kts 251°
2026-04-13 19:21 43.69559 -37.05030 27667 ft 418 kts 251°
2026-04-13 19:21 43.68701 -37.08922 27682 ft 418 kts 251°
2026-04-13 19:21 43.67864 -37.12710 27684 ft 418 kts 251°
2026-04-13 19:21 43.67003 -37.16599 27671 ft 418 kts 251°
2026-04-13 19:22 43.66162 -37.20389 27675 ft 418 kts 251°
2026-04-13 19:22 43.65308 -37.24231 27669 ft 419 kts 251°
2026-04-13 19:22 43.64453 -37.28074 27679 ft 419 kts 251°
2026-04-13 19:22 43.63585 -37.31970 27678 ft 419 kts 251°
2026-04-13 19:23 43.62725 -37.35816 27675 ft 419 kts 251°
2026-04-13 19:23 43.61876 -37.39610 27694 ft 419 kts 251°
2026-04-13 19:23 43.61015 -37.43453 27679 ft 420 kts 251°
2026-04-13 19:23 43.60151 -37.47300 27682 ft 420 kts 251°
2026-04-13 19:24 43.59286 -37.51148 27695 ft 421 kts 251°
2026-04-13 19:24 43.58417 -37.55003 27700 ft 421 kts 252°
2026-04-13 19:24 43.57544 -37.58868 27696 ft 422 kts 251°
2026-04-13 19:24 43.56669 -37.62736 27699 ft 423 kts 251°
2026-04-13 19:25 43.55790 -37.66617 27694 ft 424 kts 251°
2026-04-13 19:25 43.54909 -37.70495 27700 ft 425 kts 251°
2026-04-13 19:25 43.54026 -37.74381 27698 ft 425 kts 251°
2026-04-13 19:25 43.53140 -37.78270 27700 ft 425 kts 251°
2026-04-13 19:26 43.52254 -37.82151 27702 ft 425 kts 251°
2026-04-13 19:26 43.51366 -37.86038 27703 ft 425 kts 251°
2026-04-13 19:26 43.50477 -37.89920 27700 ft 425 kts 252°
2026-04-13 19:26 43.49586 -37.93802 27702 ft 425 kts 252°
2026-04-13 19:27 43.48696 -37.97678 27712 ft 425 kts 252°
2026-04-13 19:27 43.47802 -38.01558 27710 ft 425 kts 252°
2026-04-13 19:27 43.46906 -38.05443 27707 ft 425 kts 252°
2026-04-13 19:27 43.46010 -38.09324 27717 ft 425 kts 252°
2026-04-13 19:28 43.45112 -38.13202 27715 ft 425 kts 252°
2026-04-13 19:28 43.44212 -38.17082 27718 ft 425 kts 252°
2026-04-13 19:28 43.43312 -38.20958 27716 ft 425 kts 251°
2026-04-13 19:28 43.42411 -38.24831 27713 ft 425 kts 252°
2026-04-13 19:29 43.41507 -38.28710 27721 ft 426 kts 252°
2026-04-13 19:29 43.40603 -38.32583 27723 ft 426 kts 252°
2026-04-13 19:29 43.39695 -38.36465 27729 ft 426 kts 252°
2026-04-13 19:29 43.38787 -38.40338 27728 ft 426 kts 252°
2026-04-13 19:30 43.37876 -38.44221 27726 ft 426 kts 252°
2026-04-13 19:30 43.36965 -38.48096 27734 ft 427 kts 252°
2026-04-13 19:30 43.36051 -38.51976 27734 ft 427 kts 252°
2026-04-13 19:30 43.35137 -38.55850 27725 ft 427 kts 252°
2026-04-13 19:31 43.34220 -38.59730 27726 ft 427 kts 252°
2026-04-13 19:31 43.33302 -38.63609 27739 ft 427 kts 252°
2026-04-13 19:31 43.32383 -38.67485 27741 ft 427 kts 252°
2026-04-13 19:31 43.31459 -38.71371 27739 ft 428 kts 252°
2026-04-13 19:32 43.30536 -38.75250 27750 ft 428 kts 252°
2026-04-13 19:32 43.29613 -38.79125 27751 ft 428 kts 252°
2026-04-13 19:32 43.28685 -38.83010 27751 ft 428 kts 252°
2026-04-13 19:32 43.27757 -38.86888 27749 ft 428 kts 252°
2026-04-13 19:33 43.26827 -38.90768 27740 ft 428 kts 252°
2026-04-13 19:33 43.25895 -38.94651 27763 ft 429 kts 252°
2026-04-13 19:33 43.24960 -38.98543 27763 ft 430 kts 252°
2026-04-13 19:34 43.23078 -39.06351 27759 ft 432 kts 252°
2026-04-13 19:34 43.22131 -39.10267 27756 ft 433 kts 252°
2026-04-13 19:34 43.21184 -39.14181 27753 ft 433 kts 252°
2026-04-13 19:34 43.20232 -39.18106 27766 ft 433 kts 252°
2026-04-13 19:35 43.19280 -39.22025 27765 ft 433 kts 252°
2026-04-13 19:35 43.18326 -39.25943 27766 ft 433 kts 252°
2026-04-13 19:35 43.17372 -39.29856 27768 ft 433 kts 252°
2026-04-13 19:35 43.16417 -39.33766 27770 ft 433 kts 252°
2026-04-13 19:36 43.15462 -39.37672 27770 ft 433 kts 252°
2026-04-13 19:36 43.14815 -39.40314 27770 ft 432 kts 252°
2026-04-13 19:36 43.13858 -39.44216 27779 ft 432 kts 252°
2026-04-13 19:36 43.12901 -39.48111 27777 ft 432 kts 252°
2026-04-13 19:37 43.11941 -39.52010 27776 ft 432 kts 252°
2026-04-13 19:37 43.10994 -39.55852 27770 ft 432 kts 252°
2026-04-13 19:37 43.10033 -39.59743 27778 ft 432 kts 252°
2026-04-13 19:37 43.09058 -39.63686 27781 ft 432 kts 252°
2026-04-13 19:38 43.08107 -39.67524 27790 ft 432 kts 252°
2026-04-13 19:38 43.07130 -39.71461 27793 ft 432 kts 252°
2026-04-13 19:38 43.06176 -39.75299 27793 ft 432 kts 252°
2026-04-13 19:38 43.05207 -39.79190 27792 ft 432 kts 252°
2026-04-13 19:39 43.04238 -39.83078 27801 ft 432 kts 252°
2026-04-13 19:39 43.03265 -39.86971 27800 ft 433 kts 252°
2026-04-13 19:39 43.02293 -39.90862 27788 ft 433 kts 252°
2026-04-13 19:39 43.01318 -39.94752 27804 ft 433 kts 252°
2026-04-13 19:40 43.00350 -39.98646 27815 ft 433 kts 253°
2026-04-13 19:40 42.99555 -40.02597 27801 ft 432 kts 258°
2026-04-13 19:40 42.98974 -40.06628 27817 ft 432 kts 259°
2026-04-13 19:40 42.98383 -40.10650 27810 ft 432 kts 259°
2026-04-13 19:41 42.97777 -40.14666 27823 ft 432 kts 259°
2026-04-13 19:41 42.97162 -40.18684 27812 ft 433 kts 259°
2026-04-13 19:41 42.96543 -40.22709 27806 ft 434 kts 259°
2026-04-13 19:42 42.95300 -40.30774 27821 ft 435 kts 259°
2026-04-13 19:42 42.94676 -40.34816 27824 ft 435 kts 259°
2026-04-13 19:42 42.94052 -40.38853 27832 ft 436 kts 259°
2026-04-13 19:42 42.93423 -40.42906 27830 ft 436 kts 259°
2026-04-13 19:43 42.92794 -40.46955 27833 ft 437 kts 259°
2026-04-13 19:43 42.92163 -40.51006 27831 ft 437 kts 259°
2026-04-13 19:43 42.91530 -40.55061 27838 ft 437 kts 259°
2026-04-13 19:43 42.90896 -40.59111 27840 ft 437 kts 259°
2026-04-13 19:44 42.90262 -40.63151 27840 ft 436 kts 259°
2026-04-13 19:44 42.89626 -40.67192 27844 ft 436 kts 259°
2026-04-13 19:44 42.88991 -40.71217 27846 ft 435 kts 259°
2026-04-13 19:44 42.88351 -40.75265 27850 ft 435 kts 259°
2026-04-13 19:45 42.87712 -40.79298 27838 ft 435 kts 259°
2026-04-13 19:45 42.87074 -40.83320 27857 ft 435 kts 259°
2026-04-13 19:45 42.86431 -40.87354 27852 ft 435 kts 259°
2026-04-13 19:45 42.85788 -40.91383 27858 ft 435 kts 259°
2026-04-13 19:46 42.85145 -40.95405 27857 ft 435 kts 259°
2026-04-13 19:46 42.84499 -40.99430 27856 ft 434 kts 259°
2026-04-13 19:46 42.83854 -41.03442 27854 ft 434 kts 259°
2026-04-13 19:46 42.83207 -41.07456 27874 ft 434 kts 260°
2026-04-13 19:47 42.82561 -41.11459 27887 ft 435 kts 260°
2026-04-13 19:47 42.81906 -41.15507 27880 ft 436 kts 260°
2026-04-13 19:47 42.81252 -41.19538 27879 ft 436 kts 260°
2026-04-13 19:47 42.80595 -41.23580 27874 ft 437 kts 260°
2026-04-13 19:48 42.79936 -41.27621 27878 ft 437 kts 260°
2026-04-13 19:48 42.79275 -41.31665 27883 ft 438 kts 260°
2026-04-13 19:48 42.78613 -41.35703 27866 ft 437 kts 260°
2026-04-13 19:48 42.77950 -41.39739 27876 ft 437 kts 260°
2026-04-13 19:49 42.77286 -41.43777 27886 ft 437 kts 260°
2026-04-13 19:49 42.76620 -41.47811 27894 ft 437 kts 260°
2026-04-13 19:49 42.75953 -41.51842 27897 ft 437 kts 260°
2026-04-13 19:49 42.75285 -41.55872 27905 ft 436 kts 260°
2026-04-13 19:50 42.74617 -41.59893 27903 ft 436 kts 260°
2026-04-13 19:50 42.73946 -41.63925 27901 ft 436 kts 260°
2026-04-13 19:50 42.73274 -41.67948 27900 ft 436 kts 260°
2026-04-13 19:50 42.72601 -41.71968 27891 ft 435 kts 260°
2026-04-13 19:51 42.71929 -41.75974 27906 ft 435 kts 260°
2026-04-13 19:51 42.71256 -41.79979 27909 ft 434 kts 260°
2026-04-13 19:51 42.70582 -41.83979 27924 ft 434 kts 260°
2026-04-13 19:51 42.69909 -41.87970 27918 ft 433 kts 260°
2026-04-13 19:52 42.69681 -41.89316 27921 ft 433 kts 260°
2026-04-13 19:52 42.69627 -41.89637 27924 ft 433 kts 260°
2026-04-13 19:52 42.68951 -41.93624 27925 ft 433 kts 260°
2026-04-13 19:52 42.68274 -41.97615 27930 ft 433 kts 260°
2026-04-13 19:53 42.67596 -42.01598 27930 ft 433 kts 260°
2026-04-13 19:53 42.66916 -42.05586 27889 ft 433 kts 261°
2026-04-13 19:53 42.66235 -42.09572 27934 ft 432 kts 261°
2026-04-13 19:53 42.65553 -42.13552 27936 ft 433 kts 261°
2026-04-13 19:54 42.64871 -42.17527 27938 ft 432 kts 261°
2026-04-13 19:54 42.64186 -42.21507 27942 ft 432 kts 261°
2026-04-13 19:54 42.63501 -42.25478 27943 ft 432 kts 261°
2026-04-13 19:54 42.62814 -42.29453 27948 ft 432 kts 261°
2026-04-13 19:55 42.62126 -42.33425 27950 ft 432 kts 261°
2026-04-13 19:55 42.61436 -42.37397 27950 ft 432 kts 261°
2026-04-13 19:55 42.60745 -42.41369 27950 ft 432 kts 261°
2026-04-13 19:55 42.60053 -42.45334 27938 ft 431 kts 261°
2026-04-13 19:56 42.59361 -42.49294 27953 ft 431 kts 261°
2026-04-13 19:56 42.58669 -42.53246 27949 ft 430 kts 261°
2026-04-13 19:56 42.57976 -42.57194 27958 ft 430 kts 261°
2026-04-13 19:56 42.57282 -42.61141 27950 ft 430 kts 261°
2026-04-13 19:57 42.56587 -42.65083 27956 ft 430 kts 261°
2026-04-13 19:57 42.55891 -42.69020 27960 ft 429 kts 261°
2026-04-13 19:57 42.55194 -42.72958 27974 ft 429 kts 261°
2026-04-13 19:57 42.54495 -42.76900 27965 ft 430 kts 261°
2026-04-13 19:58 42.53794 -42.80843 27971 ft 431 kts 261°
2026-04-13 19:58 42.53099 -42.84742 27984 ft 431 kts 261°
2026-04-13 19:58 42.52384 -42.88747 27978 ft 432 kts 261°
2026-04-13 19:58 42.51677 -42.92702 27984 ft 432 kts 261°
2026-04-13 19:59 42.50966 -42.96663 27978 ft 432 kts 261°
2026-04-13 19:59 42.50264 -43.00569 27989 ft 433 kts 261°
2026-04-13 19:59 42.49551 -43.04527 27984 ft 433 kts 261°
2026-04-13 19:59 42.48835 -43.08496 27988 ft 433 kts 261°
2026-04-13 20:00 42.48117 -43.12459 27993 ft 433 kts 261°
2026-04-13 20:00 42.47400 -43.16415 27988 ft 432 kts 262°
2026-04-13 20:00 42.46683 -43.20360 27992 ft 432 kts 262°
2026-04-13 20:00 42.45964 -43.24308 27995 ft 431 kts 262°
2026-04-13 20:01 42.44526 -43.32179 28008 ft 430 kts 262°
2026-04-13 20:01 42.43085 -43.40040 28008 ft 430 kts 262°
2026-04-13 20:02 42.41639 -43.47893 28018 ft 430 kts 262°
2026-04-13 20:02 42.40913 -43.51814 27990 ft 429 kts 262°
2026-04-13 20:02 42.40189 -43.55723 28012 ft 428 kts 262°
2026-04-13 20:03 42.38741 -43.63525 28017 ft 427 kts 263°
2026-04-13 20:03 42.37287 -43.71327 28035 ft 428 kts 263°
2026-04-13 20:04 42.35828 -43.79124 28038 ft 428 kts 262°
2026-04-13 20:04 42.34361 -43.86929 28020 ft 428 kts 263°
2026-04-13 20:05 42.32891 -43.94715 28045 ft 427 kts 263°
2026-04-13 20:05 42.31416 -44.02494 28051 ft 427 kts 263°
2026-04-13 20:06 42.29938 -44.10262 28060 ft 427 kts 263°
2026-04-13 20:06 42.28455 -44.18023 28064 ft 427 kts 263°
2026-04-13 20:07 42.27712 -44.21898 27994 ft 426 kts 264°
2026-04-13 20:07 42.26968 -44.25761 28046 ft 424 kts 264°
2026-04-13 20:07 42.25488 -44.33446 28070 ft 423 kts 264°
2026-04-13 20:08 42.24007 -44.41116 28079 ft 422 kts 264°
2026-04-13 20:08 42.22520 -44.48787 28096 ft 423 kts 264°
2026-04-13 20:09 42.21024 -44.56465 28046 ft 423 kts 265°
2026-04-13 20:09 42.19524 -44.64130 28086 ft 422 kts 265°
2026-04-13 20:10 42.18021 -44.71784 28101 ft 422 kts 265°
2026-04-13 20:10 42.16513 -44.79436 28108 ft 422 kts 265°
2026-04-13 20:11 42.15000 -44.87085 28119 ft 422 kts 265°
2026-04-13 20:11 42.14241 -44.90905 28012 ft 422 kts 265°
2026-04-13 20:11 42.13482 -44.94718 28064 ft 420 kts 265°
2026-04-13 20:12 42.11970 -45.02294 28108 ft 418 kts 265°
2026-04-13 20:12 42.10457 -45.09857 28131 ft 418 kts 265°
2026-04-13 20:13 42.08939 -45.17420 28143 ft 418 kts 265°
2026-04-13 20:13 42.07414 -45.24991 28057 ft 419 kts 266°
2026-04-13 20:14 42.05882 -45.32557 28137 ft 419 kts 266°
2026-04-13 20:14 42.04342 -45.40147 28157 ft 421 kts 266°
2026-04-13 20:15 42.02790 -45.47760 28156 ft 422 kts 266°
2026-04-13 20:15 42.01230 -45.55381 28163 ft 423 kts 266°
2026-04-13 20:16 41.99661 -45.63009 28115 ft 423 kts 266°
2026-04-13 20:16 41.98091 -45.70618 28161 ft 423 kts 266°
2026-04-13 20:17 41.96516 -45.78237 28173 ft 424 kts 266°
2026-04-13 20:17 41.94930 -45.85873 28181 ft 424 kts 266°
2026-04-13 20:18 41.93337 -45.93510 28181 ft 425 kts 266°
2026-04-13 20:18 41.92011 -45.99848 28161 ft 425 kts 265°
2026-04-13 20:19 41.90407 -46.07491 28189 ft 426 kts 266°
2026-04-13 20:19 41.88791 -46.15171 28188 ft 429 kts 265°
2026-04-13 20:20 41.87161 -46.22883 28196 ft 430 kts 265°
2026-04-13 20:20 41.85523 -46.30592 28194 ft 430 kts 265°
2026-04-13 20:21 41.83879 -46.38304 28202 ft 430 kts 265°
2026-04-13 20:21 41.82236 -46.45984 28205 ft 429 kts 265°
2026-04-13 20:22 41.80584 -46.53683 28214 ft 429 kts 265°
2026-04-13 20:22 41.78933 -46.61352 28217 ft 428 kts 265°
2026-04-13 20:23 41.77277 -46.69013 28222 ft 428 kts 265°
2026-04-13 20:23 41.75616 -46.76678 28230 ft 429 kts 265°
2026-04-13 20:24 41.73944 -46.84367 28216 ft 431 kts 265°
2026-04-13 20:24 41.72261 -46.92076 28235 ft 432 kts 265°
2026-04-13 20:25 41.70567 -46.99806 28191 ft 433 kts 265°
2026-04-13 20:25 41.68861 -47.07555 28244 ft 435 kts 264°
2026-04-13 20:26 41.67141 -47.15342 28249 ft 437 kts 264°
2026-04-13 20:26 41.65415 -47.23129 28256 ft 437 kts 264°
2026-04-13 20:27 41.63681 -47.30917 28189 ft 437 kts 264°
2026-04-13 20:27 41.61946 -47.38691 28255 ft 437 kts 264°
2026-04-13 20:28 41.60203 -47.46475 28268 ft 438 kts 264°
2026-04-13 20:28 41.58466 -47.54208 28270 ft 439 kts 264°
2026-04-13 20:29 41.56702 -47.62028 28275 ft 439 kts 263°
2026-04-13 20:29 41.54933 -47.69837 28270 ft 440 kts 263°
2026-04-13 20:30 41.53154 -47.77671 28283 ft 442 kts 263°
2026-04-13 20:30 41.51364 -47.85526 28295 ft 443 kts 263°
2026-04-13 20:31 41.49564 -47.93394 28292 ft 444 kts 263°
2026-04-13 20:31 41.47755 -48.01263 28282 ft 443 kts 262°
2026-04-13 20:32 41.45943 -48.09126 28290 ft 444 kts 262°
2026-04-13 20:32 41.44127 -48.16987 28307 ft 445 kts 262°
2026-04-13 20:33 41.42296 -48.24875 28306 ft 445 kts 262°
2026-04-13 20:33 41.40463 -48.32749 28267 ft 445 kts 262°
2026-04-13 20:34 41.38624 -48.40617 28311 ft 445 kts 262°
2026-04-13 20:34 41.36777 -48.48495 28311 ft 446 kts 261°
2026-04-13 20:35 41.34922 -48.56382 28322 ft 447 kts 261°
2026-04-13 20:35 41.33058 -48.64277 28276 ft 448 kts 261°
2026-04-13 20:36 41.31185 -48.72176 28317 ft 448 kts 261°
2026-04-13 20:36 41.29306 -48.80086 28329 ft 449 kts 261°
2026-04-13 20:37 41.27415 -48.88010 28327 ft 450 kts 261°
2026-04-13 20:37 41.25518 -48.95934 28326 ft 450 kts 261°
2026-04-13 20:38 41.23614 -49.03854 28330 ft 450 kts 260°
2026-04-13 20:38 41.21704 -49.11786 28336 ft 451 kts 260°
2026-04-13 20:39 41.19781 -49.19738 28326 ft 452 kts 260°
2026-04-13 20:39 41.17850 -49.27694 28339 ft 453 kts 260°
2026-04-13 20:40 41.15910 -49.35657 28337 ft 454 kts 259°
2026-04-13 20:40 41.13961 -49.43633 28341 ft 455 kts 259°
2026-04-13 20:41 41.12002 -49.51624 28343 ft 456 kts 259°
2026-04-13 20:41 41.10035 -49.59620 28342 ft 456 kts 259°
2026-04-13 20:42 41.08060 -49.67618 28342 ft 456 kts 259°
2026-04-13 20:42 41.06082 -49.75601 28342 ft 456 kts 259°
2026-04-13 20:43 41.04100 -49.83577 28347 ft 455 kts 259°
2026-04-13 20:43 41.02130 -49.91487 28348 ft 455 kts 259°
2026-04-13 20:44 41.00147 -49.99496 28349 ft 453 kts 260°
2026-04-13 20:44 40.98807 -50.07570 28353 ft 449 kts 265°
2026-04-13 20:45 40.97596 -50.15683 28351 ft 450 kts 265°
2026-04-13 20:46 40.95728 -50.27874 28376 ft 451 kts 265°
2026-04-13 20:46 40.94467 -50.36011 28354 ft 451 kts 264°
2026-04-13 20:47 40.93200 -50.44148 28350 ft 452 kts 264°
2026-04-13 20:47 40.91925 -50.52297 28368 ft 453 kts 264°
2026-04-13 20:48 40.90653 -50.60393 28367 ft 453 kts 264°
2026-04-13 20:48 40.89356 -50.68613 28341 ft 454 kts 264°
2026-04-13 20:49 40.88059 -50.76782 28363 ft 454 kts 264°
2026-04-13 20:49 40.86757 -50.84953 28374 ft 455 kts 264°
2026-04-13 20:50 40.85456 -50.93074 28374 ft 455 kts 264°
2026-04-13 20:50 40.84138 -51.01256 28375 ft 456 kts 264°
2026-04-13 20:51 40.82815 -51.09438 28355 ft 455 kts 264°
2026-04-13 20:51 40.81486 -51.17616 28372 ft 456 kts 264°
2026-04-13 20:52 40.80819 -51.21708 28383 ft 457 kts 264°
2026-04-13 20:52 40.79913 -51.27248 28374 ft 457 kts 264°
2026-04-13 20:53 40.78565 -51.35459 28372 ft 458 kts 264°
2026-04-13 20:53 40.77206 -51.43707 28577 ft 463 kts 263°
2026-04-13 20:53 40.76520 -51.47852 29032 ft 462 kts 263°
2026-04-13 20:54 40.75832 -51.51988 29585 ft 460 kts 264°
2026-04-13 20:54 40.75147 -51.56094 30153 ft 457 kts 264°
2026-04-13 20:54 40.74464 -51.60176 30668 ft 455 kts 264°
2026-04-13 20:54 40.73785 -51.64233 31078 ft 454 kts 264°
2026-04-13 20:55 40.73105 -51.68295 31431 ft 453 kts 264°
2026-04-13 20:55 40.72426 -51.72349 31780 ft 453 kts 264°
2026-04-13 20:55 40.71743 -51.76409 32141 ft 453 kts 264°
2026-04-13 20:55 40.71061 -51.80455 32477 ft 452 kts 265°
2026-04-13 20:56 40.70378 -51.84500 32777 ft 453 kts 265°
2026-04-13 20:56 40.69693 -51.88547 33094 ft 453 kts 265°
2026-04-13 20:56 40.69006 -51.92593 33452 ft 452 kts 265°
2026-04-13 20:56 40.68319 -51.96628 33783 ft 451 kts 265°
2026-04-13 20:57 40.67632 -52.00652 34097 ft 451 kts 265°
2026-04-13 20:57 40.66944 -52.04678 34324 ft 451 kts 265°
2026-04-13 20:57 40.66253 -52.08722 34368 ft 453 kts 265°
2026-04-13 20:58 40.64863 -52.16808 34389 ft 451 kts 265°
2026-04-13 20:58 40.63472 -52.24849 34399 ft 449 kts 265°
2026-04-13 20:59 40.62083 -52.32859 34394 ft 449 kts 266°
2026-04-13 20:59 40.60689 -52.40864 34402 ft 449 kts 266°
2026-04-13 21:00 40.59288 -52.48873 34403 ft 449 kts 266°
2026-04-13 21:00 40.57880 -52.56889 34389 ft 450 kts 266°
2026-04-13 21:01 40.56463 -52.64920 34403 ft 451 kts 266°
2026-04-13 21:01 40.55038 -52.72966 34402 ft 453 kts 265°
2026-04-13 21:02 40.53846 -52.79662 34405 ft 453 kts 265°
2026-04-13 21:02 40.52402 -52.87740 34396 ft 454 kts 266°
2026-04-13 21:03 40.50953 -52.95813 34393 ft 454 kts 265°
2026-04-13 21:03 40.49497 -53.03885 34401 ft 454 kts 265°
2026-04-13 21:04 40.48036 -53.11958 34402 ft 455 kts 265°
2026-04-13 21:04 40.46568 -53.20033 34405 ft 455 kts 265°
2026-04-13 21:05 40.45094 -53.28111 34405 ft 455 kts 265°
2026-04-13 21:05 40.43615 -53.36178 34404 ft 455 kts 265°
2026-04-13 21:06 40.42130 -53.44241 34402 ft 454 kts 265°
2026-04-13 21:06 40.40641 -53.52292 34401 ft 454 kts 265°
2026-04-13 21:07 40.39148 -53.60330 34401 ft 453 kts 265°
2026-04-13 21:07 40.37652 -53.68359 34396 ft 453 kts 265°
2026-04-13 21:08 40.36149 -53.76389 34408 ft 454 kts 265°
2026-04-13 21:08 40.34641 -53.84416 34411 ft 454 kts 265°
2026-04-13 21:09 40.33121 -53.92469 34405 ft 455 kts 265°
2026-04-13 21:09 40.31597 -54.00511 34380 ft 456 kts 264°
2026-04-13 21:10 40.30060 -54.08592 34398 ft 458 kts 264°
2026-04-13 21:10 40.28521 -54.16646 34408 ft 460 kts 264°
2026-04-13 21:11 40.26961 -54.24776 34407 ft 462 kts 264°
2026-04-13 21:11 40.25381 -54.32978 34405 ft 463 kts 264°
2026-04-13 21:12 40.23806 -54.41112 34390 ft 464 kts 264°
2026-04-13 21:12 40.22205 -54.49354 34403 ft 465 kts 264°
2026-04-13 21:13 40.20618 -54.57490 34409 ft 465 kts 263°
2026-04-13 21:13 40.19017 -54.65663 34411 ft 465 kts 263°
2026-04-13 21:14 40.17402 -54.73871 34386 ft 465 kts 263°
2026-04-13 21:14 40.15790 -54.82036 34399 ft 464 kts 263°
2026-04-13 21:15 40.14166 -54.90224 34400 ft 464 kts 263°
2026-04-13 21:15 40.12541 -54.98389 34405 ft 464 kts 263°
2026-04-13 21:16 40.10910 -55.06555 34396 ft 464 kts 263°
2026-04-13 21:16 40.09274 -55.14709 34399 ft 464 kts 263°
2026-04-13 21:17 40.07628 -55.22880 34403 ft 465 kts 263°
2026-04-13 21:17 40.05976 -55.31050 34405 ft 466 kts 263°
2026-04-13 21:18 40.04315 -55.39229 34404 ft 467 kts 262°
2026-04-13 21:18 40.02646 -55.47416 34394 ft 467 kts 262°
2026-04-13 21:19 40.00967 -55.55620 34402 ft 468 kts 262°
2026-04-13 21:19 39.99281 -55.63827 34407 ft 469 kts 262°
2026-04-13 21:20 39.97597 -55.71994 34414 ft 470 kts 262°
2026-04-13 21:20 39.95894 -55.80217 34388 ft 470 kts 262°
2026-04-13 21:21 39.94184 -55.88442 34409 ft 471 kts 262°
2026-04-13 21:21 39.92466 -55.96674 34409 ft 471 kts 262°
2026-04-13 21:22 39.90740 -56.04913 34408 ft 472 kts 262°
2026-04-13 21:22 39.89008 -56.13150 34392 ft 472 kts 261°
2026-04-13 21:23 39.87270 -56.21380 34401 ft 471 kts 261°
2026-04-13 21:23 39.85528 -56.29598 34410 ft 471 kts 261°
2026-04-13 21:24 39.83793 -56.37751 34412 ft 470 kts 261°
2026-04-13 21:24 39.82043 -56.45949 34411 ft 470 kts 261°
2026-04-13 21:25 39.80287 -56.54139 34400 ft 470 kts 261°
2026-04-13 21:25 39.78527 -56.62317 34420 ft 469 kts 261°
2026-04-13 21:26 39.76764 -56.70482 34405 ft 469 kts 261°
2026-04-13 21:26 39.74996 -56.78636 34412 ft 469 kts 261°
2026-04-13 21:27 39.73223 -56.86781 34395 ft 468 kts 261°
2026-04-13 21:27 39.71447 -56.94911 34408 ft 467 kts 261°
2026-04-13 21:28 39.69670 -57.03014 34412 ft 466 kts 261°
2026-04-13 21:28 39.67890 -57.11107 34408 ft 466 kts 260°
2026-04-13 21:29 39.66119 -57.19126 34390 ft 465 kts 260°
2026-04-13 21:29 39.64332 -57.27186 34410 ft 465 kts 260°
2026-04-13 21:30 39.62541 -57.35239 34415 ft 464 kts 260°
2026-04-13 21:30 39.60745 -57.43286 34416 ft 464 kts 260°
2026-04-13 21:31 39.58944 -57.51325 34410 ft 464 kts 260°
2026-04-13 21:31 39.57136 -57.59363 34406 ft 464 kts 260°
2026-04-13 21:32 39.55324 -57.67390 34416 ft 464 kts 260°
2026-04-13 21:32 39.53507 -57.75416 34410 ft 464 kts 259°
2026-04-13 21:33 39.51683 -57.83441 34410 ft 465 kts 259°
2026-04-13 21:33 39.49851 -57.91470 34398 ft 465 kts 259°
2026-04-13 21:34 39.47097 -58.03493 34409 ft 464 kts 259°
2026-04-13 21:34 39.45255 -58.11499 34407 ft 464 kts 259°
2026-04-13 21:35 39.43405 -58.19510 34406 ft 465 kts 259°
2026-04-13 21:36 39.40634 -58.31456 34400 ft 464 kts 259°
2026-04-13 21:36 39.38772 -58.39446 34405 ft 464 kts 259°
2026-04-13 21:37 39.36905 -58.47435 34411 ft 465 kts 259°
2026-04-13 21:37 39.35031 -58.55426 34395 ft 464 kts 259°
2026-04-13 21:38 39.33154 -58.63400 34393 ft 464 kts 259°
2026-04-13 21:38 39.31271 -58.71371 34393 ft 464 kts 259°
2026-04-13 21:39 39.29384 -58.79337 34398 ft 464 kts 259°
2026-04-13 21:39 39.27489 -58.87306 34397 ft 464 kts 259°
2026-04-13 21:40 39.25589 -58.95270 34398 ft 465 kts 259°
2026-04-13 21:40 39.23694 -59.03185 34394 ft 465 kts 258°
2026-04-13 21:41 39.21780 -59.11149 34396 ft 465 kts 258°
2026-04-13 21:41 39.19860 -59.19116 34397 ft 465 kts 258°
2026-04-13 21:42 39.17934 -59.27080 34395 ft 466 kts 258°
2026-04-13 21:42 39.16000 -59.35051 34388 ft 466 kts 258°
2026-04-13 21:43 39.14063 -59.43007 34387 ft 466 kts 258°
2026-04-13 21:43 39.12118 -59.50967 34393 ft 466 kts 258°
2026-04-13 21:44 39.10169 -59.58922 34396 ft 466 kts 258°
2026-04-13 21:44 39.08214 -59.66869 34392 ft 466 kts 258°
2026-04-13 21:45 39.06255 -59.74813 34371 ft 466 kts 258°
2026-04-13 21:45 39.04291 -59.82748 34391 ft 465 kts 258°
2026-04-13 21:46 39.02324 -59.90675 34382 ft 465 kts 257°
2026-04-13 21:46 39.00353 -59.98601 34381 ft 465 kts 258°
2026-04-13 21:47 38.98925 -60.06583 34378 ft 460 kts 264°
2026-04-13 21:47 38.97718 -60.14661 34368 ft 460 kts 264°
2026-04-13 21:48 38.96493 -60.22734 34389 ft 460 kts 264°
2026-04-13 21:48 38.95247 -60.30803 34374 ft 461 kts 263°
2026-04-13 21:49 38.93988 -60.38878 34379 ft 461 kts 263°
2026-04-13 21:49 38.92721 -60.46951 34371 ft 461 kts 263°
2026-04-13 21:50 38.91449 -60.55027 34376 ft 461 kts 263°
2026-04-13 21:50 38.90173 -60.63087 34378 ft 461 kts 263°
2026-04-13 21:51 38.88892 -60.71146 34374 ft 461 kts 263°
2026-04-13 21:51 38.87606 -60.79198 34371 ft 460 kts 263°
2026-04-13 21:52 38.86962 -60.83218 34371 ft 460 kts 263°
2026-04-13 21:52 38.86093 -60.88620 34370 ft 460 kts 263°
2026-04-13 21:53 38.84790 -60.96700 34374 ft 459 kts 263°
2026-04-13 21:53 38.83500 -61.04661 34365 ft 459 kts 263°
2026-04-13 21:54 38.82197 -61.12665 34358 ft 458 kts 263°
2026-04-13 21:54 38.80888 -61.20668 34367 ft 458 kts 263°
2026-04-13 21:55 38.79575 -61.28660 34369 ft 459 kts 263°
2026-04-13 21:55 38.78255 -61.36660 34359 ft 459 kts 262°
2026-04-13 21:56 38.77152 -61.43313 34369 ft 459 kts 262°
2026-04-13 21:56 38.75819 -61.51325 34364 ft 460 kts 262°
2026-04-13 21:57 38.74480 -61.59335 34356 ft 460 kts 262°
2026-04-13 21:57 38.73135 -61.67347 34365 ft 460 kts 262°
2026-04-13 21:58 38.71783 -61.75362 34365 ft 461 kts 262°
2026-04-13 21:58 38.70425 -61.83380 34364 ft 461 kts 262°
2026-04-13 21:59 38.69061 -61.91399 34361 ft 461 kts 262°
2026-04-13 21:59 38.67690 -61.99422 34356 ft 461 kts 262°
2026-04-13 22:00 38.66323 -62.07386 34349 ft 461 kts 262°
2026-04-13 22:00 38.64941 -62.15400 34365 ft 462 kts 262°
2026-04-13 22:01 38.63552 -62.23424 34354 ft 462 kts 261°
2026-04-13 22:01 38.62159 -62.31441 34358 ft 462 kts 261°
2026-04-13 22:02 38.60757 -62.39469 34363 ft 463 kts 261°
2026-04-13 22:02 38.59350 -62.47491 34357 ft 463 kts 261°
2026-04-13 22:03 38.57936 -62.55516 34357 ft 463 kts 261°
2026-04-13 22:03 38.56518 -62.63534 34361 ft 463 kts 261°
2026-04-13 22:04 38.55095 -62.71545 34358 ft 463 kts 261°
2026-04-13 22:04 38.53666 -62.79555 34358 ft 463 kts 261°
2026-04-13 22:05 38.52243 -62.87501 34361 ft 462 kts 260°
2026-04-13 22:05 38.50795 -62.95546 34357 ft 461 kts 260°
2026-04-13 22:06 38.49364 -63.03469 34351 ft 460 kts 260°
2026-04-13 22:06 38.47912 -63.11476 34360 ft 460 kts 260°
2026-04-13 22:07 38.46466 -63.19413 34357 ft 459 kts 260°
2026-04-13 22:07 38.45025 -63.27290 34355 ft 459 kts 260°
2026-04-13 22:08 38.43572 -63.35207 34359 ft 458 kts 260°
2026-04-13 22:08 38.42114 -63.43115 34358 ft 458 kts 260°
2026-04-13 22:09 38.40649 -63.51029 34349 ft 458 kts 260°
2026-04-13 22:09 38.39181 -63.58928 34353 ft 458 kts 260°
2026-04-13 22:10 38.37706 -63.66832 34354 ft 459 kts 259°
2026-04-13 22:10 38.36224 -63.74744 34349 ft 459 kts 259°
2026-04-13 22:11 38.34737 -63.82645 34355 ft 459 kts 259°
2026-04-13 22:11 38.33246 -63.90541 34343 ft 458 kts 259°
2026-04-13 22:12 38.31753 -63.98413 34347 ft 458 kts 259°
2026-04-13 22:12 38.30253 -64.06296 34343 ft 458 kts 259°
2026-04-13 22:13 38.28748 -64.14167 34343 ft 457 kts 259°
2026-04-13 22:13 38.27251 -64.21973 34346 ft 457 kts 259°
2026-04-13 22:14 38.25739 -64.29825 34346 ft 457 kts 259°
2026-04-13 22:14 38.24223 -64.37665 34343 ft 457 kts 259°
2026-04-13 22:15 38.22700 -64.45513 34329 ft 457 kts 259°
2026-04-13 22:15 38.21173 -64.53351 34347 ft 457 kts 259°
2026-04-13 22:16 38.19638 -64.61197 34344 ft 457 kts 259°
2026-04-13 22:16 38.18099 -64.69040 34344 ft 457 kts 259°
2026-04-13 22:17 38.16554 -64.76880 34341 ft 458 kts 259°
2026-04-13 22:17 38.15002 -64.84723 34343 ft 458 kts 259°
2026-04-13 22:18 38.13444 -64.92571 34341 ft 458 kts 259°
2026-04-13 22:18 38.11881 -65.00412 34337 ft 458 kts 259°
2026-04-13 22:19 38.10311 -65.08258 34341 ft 459 kts 259°
2026-04-13 22:19 38.08744 -65.16062 34341 ft 459 kts 259°
2026-04-13 22:20 38.07160 -65.23918 34340 ft 460 kts 259°
2026-04-13 22:20 38.05571 -65.31772 34334 ft 460 kts 259°
2026-04-13 22:21 38.03976 -65.39626 34338 ft 460 kts 258°
2026-04-13 22:21 38.02376 -65.47475 34336 ft 459 kts 258°
2026-04-13 22:22 38.00771 -65.55318 34339 ft 459 kts 258°
2026-04-13 22:22 37.99163 -65.63150 34334 ft 459 kts 258°
2026-04-13 22:23 37.97551 -65.70974 34333 ft 459 kts 258°
2026-04-13 22:23 37.95935 -65.78783 34340 ft 458 kts 258°
2026-04-13 22:24 37.94314 -65.86593 34339 ft 458 kts 258°
2026-04-13 22:24 37.92687 -65.94404 34327 ft 458 kts 258°
2026-04-13 22:25 37.91056 -66.02204 34329 ft 458 kts 258°
2026-04-13 22:25 37.89419 -66.10003 34336 ft 458 kts 258°
2026-04-13 22:26 37.87776 -66.17806 34333 ft 459 kts 258°
2026-04-13 22:26 37.86128 -66.25603 34329 ft 459 kts 258°
2026-04-13 22:27 37.84470 -66.33420 34332 ft 460 kts 258°
2026-04-13 22:27 37.82808 -66.41228 34334 ft 460 kts 258°
2026-04-13 22:28 37.81137 -66.49045 34325 ft 460 kts 258°
2026-04-13 22:28 37.79462 -66.56860 34335 ft 460 kts 258°
2026-04-13 22:29 37.77782 -66.64669 34329 ft 460 kts 258°
2026-04-13 22:29 37.76109 -66.72420 34329 ft 460 kts 258°
2026-04-13 22:30 37.74418 -66.80224 34331 ft 460 kts 258°
2026-04-13 22:30 37.72724 -66.88013 34337 ft 460 kts 258°
2026-04-13 22:31 37.71025 -66.95803 34329 ft 460 kts 257°
2026-04-13 22:31 37.69322 -67.03578 34323 ft 459 kts 257°
2026-04-13 22:32 37.67616 -67.11343 34329 ft 459 kts 257°
2026-04-13 22:32 37.65906 -67.19100 34329 ft 459 kts 257°
2026-04-13 22:33 37.64191 -67.26854 34331 ft 458 kts 257°
2026-04-13 22:33 37.62474 -67.34591 34325 ft 458 kts 257°
2026-04-13 22:34 37.59031 -67.50024 34315 ft 457 kts 257°
2026-04-13 22:35 37.57299 -67.57748 34322 ft 457 kts 257°
2026-04-13 22:35 37.55564 -67.65462 34326 ft 457 kts 257°
2026-04-13 22:36 37.53825 -67.73164 34323 ft 457 kts 257°
2026-04-13 22:36 37.52082 -67.80861 34319 ft 457 kts 257°
2026-04-13 22:37 37.50334 -67.88555 34324 ft 457 kts 257°
2026-04-13 22:37 37.48579 -67.96253 34318 ft 457 kts 257°
2026-04-13 22:38 37.46819 -68.03943 34307 ft 457 kts 257°
2026-04-13 22:38 37.45055 -68.11630 34323 ft 458 kts 257°
2026-04-13 22:39 37.43282 -68.19333 34320 ft 459 kts 256°
2026-04-13 22:39 37.41507 -68.27015 34314 ft 455 kts 256°
2026-04-13 22:40 37.39741 -68.34626 34318 ft 451 kts 256°
2026-04-13 22:40 37.37989 -68.42164 34314 ft 448 kts 256°
2026-04-13 22:41 37.36249 -68.49623 34315 ft 446 kts 256°
2026-04-13 22:41 37.34500 -68.57101 34299 ft 446 kts 256°
2026-04-13 22:42 37.32732 -68.64634 34317 ft 447 kts 256°
2026-04-13 22:42 37.30976 -68.72094 34320 ft 449 kts 256°
2026-04-13 22:43 37.29195 -68.79634 34322 ft 451 kts 256°
2026-04-13 22:43 37.27403 -68.87195 34322 ft 452 kts 256°
2026-04-13 22:44 37.25603 -68.94763 34313 ft 452 kts 256°
2026-04-13 22:44 37.23802 -69.02315 34316 ft 451 kts 256°
2026-04-13 22:45 37.22000 -69.09849 34309 ft 450 kts 255°
2026-04-13 22:45 37.20196 -69.17367 34317 ft 449 kts 255°
2026-04-13 22:46 37.18392 -69.24862 34314 ft 449 kts 255°
2026-04-13 22:46 37.16889 -69.31086 34323 ft 448 kts 255°
2026-04-13 22:47 37.15080 -69.38563 34319 ft 448 kts 255°
2026-04-13 22:47 37.13267 -69.46029 34319 ft 448 kts 255°
2026-04-13 22:48 37.11449 -69.53491 34322 ft 448 kts 255°
2026-04-13 22:48 37.09630 -69.60941 34325 ft 447 kts 255°
2026-04-13 22:49 37.07805 -69.68391 34312 ft 448 kts 255°
2026-04-13 22:49 37.05974 -69.75839 34323 ft 448 kts 255°
2026-04-13 22:50 37.04134 -69.83305 34318 ft 449 kts 255°
2026-04-13 22:50 37.02288 -69.90777 34317 ft 449 kts 255°
2026-04-13 22:51 37.00619 -69.98293 34311 ft 448 kts 261°
2026-04-13 22:51 36.99891 -70.06003 34317 ft 445 kts 270°
2026-04-13 22:52 36.99848 -70.11132 34317 ft 445 kts 270°
2026-04-13 22:52 36.99834 -70.13951 34312 ft 445 kts 270°
2026-04-13 22:53 36.99790 -70.21696 34305 ft 445 kts 270°
2026-04-13 22:53 36.99727 -70.29434 34307 ft 445 kts 270°
2026-04-13 22:54 36.99649 -70.37123 34307 ft 445 kts 270°
2026-04-13 22:54 36.99562 -70.44860 34301 ft 445 kts 270°
2026-04-13 22:55 36.99470 -70.52637 34308 ft 445 kts 270°
2026-04-13 22:55 36.99374 -70.60328 34310 ft 445 kts 270°
2026-04-13 22:56 36.99273 -70.68066 34303 ft 445 kts 270°
2026-04-13 22:56 36.99165 -70.75855 34297 ft 445 kts 270°
2026-04-13 22:57 36.99054 -70.83547 34297 ft 445 kts 270°
2026-04-13 22:57 36.98938 -70.91291 34293 ft 445 kts 269°
2026-04-13 22:58 36.98816 -70.99039 34292 ft 445 kts 269°
2026-04-13 22:58 36.98690 -71.06768 34289 ft 446 kts 269°
2026-04-13 22:59 36.98558 -71.14535 34291 ft 446 kts 269°
2026-04-13 22:59 36.98421 -71.22283 34289 ft 446 kts 269°
2026-04-13 23:00 36.98279 -71.30039 34283 ft 446 kts 269°
2026-04-13 23:00 36.98132 -71.37786 34291 ft 446 kts 269°
2026-04-13 23:01 36.97980 -71.45532 34292 ft 446 kts 269°
2026-04-13 23:01 36.97823 -71.53273 34288 ft 446 kts 269°
2026-04-13 23:02 36.97661 -71.61025 34286 ft 445 kts 269°
2026-04-13 23:02 36.97494 -71.68768 34286 ft 445 kts 268°
2026-04-13 23:03 36.97323 -71.76503 34279 ft 445 kts 268°
2026-04-13 23:03 36.97146 -71.84242 34275 ft 445 kts 268°
2026-04-13 23:04 36.96964 -71.91974 34282 ft 445 kts 268°
2026-04-13 23:04 36.96777 -71.99705 34275 ft 445 kts 268°
2026-04-13 23:05 36.96587 -72.07381 34278 ft 444 kts 268°
2026-04-13 23:05 36.96390 -72.15098 34271 ft 444 kts 268°
2026-04-13 23:06 36.96189 -72.22818 34273 ft 444 kts 268°
2026-04-13 23:06 36.95982 -72.30530 34267 ft 444 kts 268°
2026-04-13 23:07 36.95771 -72.38244 34270 ft 444 kts 268°
2026-04-13 23:07 36.95555 -72.45952 34267 ft 444 kts 268°
2026-04-13 23:08 36.95334 -72.53659 34267 ft 443 kts 268°
2026-04-13 23:08 36.95108 -72.61359 34271 ft 443 kts 268°
2026-04-13 23:09 36.94877 -72.69058 34263 ft 443 kts 268°
2026-04-13 23:09 36.94641 -72.76749 34260 ft 443 kts 268°
2026-04-13 23:10 36.94401 -72.84431 34257 ft 442 kts 268°
2026-04-13 23:10 36.94157 -72.92110 34251 ft 442 kts 268°
2026-04-13 23:11 36.93907 -72.99787 34262 ft 442 kts 268°
2026-04-13 23:11 36.93822 -73.07459 34258 ft 442 kts 270°
2026-04-13 23:12 36.93847 -73.15146 34255 ft 442 kts 270°
2026-04-13 23:12 36.93834 -73.22778 34253 ft 442 kts 270°
2026-04-13 23:13 36.93801 -73.30466 34250 ft 442 kts 270°
2026-04-13 23:13 36.93797 -73.38145 34247 ft 442 kts 270°
2026-04-13 23:14 36.93804 -73.45820 34246 ft 441 kts 270°
2026-04-13 23:14 36.93794 -73.53486 34242 ft 441 kts 270°
2026-04-13 23:15 36.93757 -73.61145 34250 ft 440 kts 270°
2026-04-13 23:15 36.93718 -73.68791 34247 ft 440 kts 270°
2026-04-13 23:16 36.93666 -73.76431 34239 ft 439 kts 269°
2026-04-13 23:16 36.93584 -73.84066 34240 ft 439 kts 269°
2026-04-13 23:17 36.93495 -73.91687 34239 ft 439 kts 269°
2026-04-13 23:17 36.93405 -73.99312 34237 ft 439 kts 269°
2026-04-13 23:18 36.93312 -74.06932 34238 ft 438 kts 269°
2026-04-13 23:18 36.93214 -74.14548 34232 ft 438 kts 269°
2026-04-13 23:19 36.93112 -74.22165 34235 ft 438 kts 269°
2026-04-13 23:19 36.93004 -74.29788 34233 ft 439 kts 269°
2026-04-13 23:20 36.92892 -74.37407 34240 ft 439 kts 269°
2026-04-13 23:20 36.92778 -74.44976 34232 ft 438 kts 269°
2026-04-13 23:21 36.92696 -74.52596 34210 ft 439 kts 269°
2026-04-13 23:21 36.92622 -74.60220 34225 ft 439 kts 269°
2026-04-13 23:22 36.92539 -74.67856 34224 ft 440 kts 269°
2026-04-13 23:22 36.92449 -74.75503 34224 ft 440 kts 269°
2026-04-13 23:23 36.92352 -74.83164 34221 ft 441 kts 269°
2026-04-13 23:23 36.92251 -74.90831 34221 ft 441 kts 269°
2026-04-13 23:24 36.92144 -74.98499 34223 ft 441 kts 269°
2026-04-13 23:24 36.91976 -75.10001 34229 ft 441 kts 269°
2026-04-13 23:25 36.91859 -75.17650 34216 ft 440 kts 269°
2026-04-13 23:25 36.91686 -75.25226 34210 ft 438 kts 267°
2026-04-13 23:26 36.91363 -75.32822 34209 ft 437 kts 267°
2026-04-13 23:26 36.91097 -75.40408 34207 ft 436 kts 269°
2026-04-13 23:27 36.90979 -75.47983 34221 ft 436 kts 269°
2026-04-13 23:27 36.90846 -75.55546 34207 ft 435 kts 269°
2026-04-13 23:28 36.90679 -75.63106 34206 ft 435 kts 268°
2026-04-13 23:28 36.90493 -75.70662 34205 ft 435 kts 268°
2026-04-13 23:29 36.90307 -75.78220 34205 ft 435 kts 268°
2026-04-13 23:29 36.90126 -75.85781 34199 ft 435 kts 268°
2026-04-13 23:30 36.89947 -75.93346 34198 ft 436 kts 268°
2026-04-13 23:30 36.89758 -76.00919 34184 ft 436 kts 268°
2026-04-13 23:31 36.89540 -76.08498 34185 ft 437 kts 268°
2026-04-13 23:31 36.89177 -76.16073 34179 ft 438 kts 262°
2026-04-13 23:32 36.87709 -76.23469 34191 ft 440 kts 253°
2026-04-13 23:32 36.85292 -76.30524 34208 ft 443 kts 247°
2026-04-13 23:33 36.82603 -76.37470 34204 ft 445 kts 246°
2026-04-13 23:33 36.79914 -76.44423 34202 ft 445 kts 246°
2026-04-13 23:34 36.77241 -76.51385 34211 ft 445 kts 247°
2026-04-13 23:34 36.74574 -76.58345 34220 ft 444 kts 247°
2026-04-13 23:35 36.72364 -76.64109 34219 ft 443 kts 247°
2026-04-13 23:35 36.69704 -76.71032 34214 ft 442 kts 246°
2026-04-13 23:36 36.67046 -76.77931 34218 ft 442 kts 246°
2026-04-13 23:36 36.64381 -76.84835 34217 ft 442 kts 246°
2026-04-13 23:37 36.61711 -76.91734 34212 ft 442 kts 246°
2026-04-13 23:37 36.59035 -76.98635 34212 ft 443 kts 246°
2026-04-13 23:38 36.56357 -77.05526 34212 ft 443 kts 246°
2026-04-13 23:38 36.53672 -77.12419 34212 ft 443 kts 246°
2026-04-13 23:39 36.50981 -77.19313 34214 ft 443 kts 246°
2026-04-13 23:39 36.48287 -77.26202 34223 ft 444 kts 246°
2026-04-13 23:40 36.45583 -77.33100 34219 ft 444 kts 246°
2026-04-13 23:40 36.42891 -77.39951 34220 ft 445 kts 246°
2026-04-13 23:41 36.40176 -77.46848 34222 ft 445 kts 246°
2026-04-13 23:41 36.37453 -77.53749 34221 ft 445 kts 246°
2026-04-13 23:42 36.34728 -77.60640 34223 ft 445 kts 245°
2026-04-13 23:42 36.32000 -77.67525 34224 ft 445 kts 245°
2026-04-13 23:43 36.29270 -77.74400 34220 ft 445 kts 245°
2026-04-13 23:43 36.26535 -77.81273 34226 ft 445 kts 245°
2026-04-13 23:44 36.23791 -77.88153 34223 ft 445 kts 245°
2026-04-13 23:44 36.21043 -77.95028 34228 ft 445 kts 245°
2026-04-13 23:45 36.18293 -78.01893 34234 ft 445 kts 245°
2026-04-13 23:45 36.15538 -78.08757 34237 ft 445 kts 245°
2026-04-13 23:46 36.12780 -78.15614 34234 ft 445 kts 245°
2026-04-13 23:46 36.10015 -78.22476 34249 ft 445 kts 245°
2026-04-13 23:47 36.07248 -78.29327 34249 ft 446 kts 245°
2026-04-13 23:47 36.04471 -78.36187 34250 ft 446 kts 245°
2026-04-13 23:48 36.01691 -78.43040 34249 ft 446 kts 245°
2026-04-13 23:48 35.98904 -78.49899 34245 ft 447 kts 245°
2026-04-13 23:49 35.96114 -78.56748 34241 ft 447 kts 245°
2026-04-13 23:49 35.93321 -78.63592 34229 ft 447 kts 245°
2026-04-13 23:50 35.90522 -78.70438 34236 ft 447 kts 245°
2026-04-13 23:50 35.88270 -78.77528 34256 ft 444 kts 257°
2026-04-13 23:51 35.87404 -78.85052 34245 ft 444 kts 269°
2026-04-13 23:51 35.87590 -78.92672 34250 ft 445 kts 271°
2026-04-13 23:52 35.87644 -78.94284 34246 ft 445 kts 271°
2026-04-13 23:52 35.87891 -79.01911 34243 ft 445 kts 271°
2026-04-13 23:53 35.88106 -79.09538 34246 ft 445 kts 271°
2026-04-13 23:53 35.88299 -79.17163 34238 ft 445 kts 271°
2026-04-13 23:54 35.88481 -79.24788 34237 ft 445 kts 271°
2026-04-13 23:54 35.88658 -79.32413 34238 ft 445 kts 271°
2026-04-13 23:55 35.88830 -79.40029 34240 ft 444 kts 271°
2026-04-13 23:55 35.88998 -79.47644 34243 ft 444 kts 271°
2026-04-13 23:56 35.89161 -79.55258 34242 ft 444 kts 271°
2026-04-13 23:56 35.89319 -79.62873 34242 ft 444 kts 271°
2026-04-13 23:57 35.89472 -79.70488 34239 ft 444 kts 271°
2026-04-13 23:57 35.89621 -79.78104 34239 ft 444 kts 270°
2026-04-13 23:58 35.89764 -79.85721 34239 ft 445 kts 271°
2026-04-13 23:58 35.89904 -79.93347 34238 ft 445 kts 271°
2026-04-13 23:59 35.90037 -80.00935 34237 ft 445 kts 271°
2026-04-13 23:59 35.90167 -80.08575 34239 ft 446 kts 271°
2026-04-14 00:00 35.90292 -80.16223 34236 ft 446 kts 270°
2026-04-14 00:00 35.90412 -80.23886 34240 ft 447 kts 271°
2026-04-14 00:01 35.90529 -80.31572 34238 ft 449 kts 271°
2026-04-14 00:01 35.90640 -80.39276 34234 ft 450 kts 271°
2026-04-14 00:02 35.90747 -80.47001 34228 ft 451 kts 271°
2026-04-14 00:02 35.90848 -80.54734 34228 ft 451 kts 271°
2026-04-14 00:03 35.90945 -80.62492 34217 ft 453 kts 271°
2026-04-14 00:03 35.91037 -80.70271 34218 ft 454 kts 271°
2026-04-14 00:04 35.91125 -80.78071 34212 ft 455 kts 271°
2026-04-14 00:04 35.91208 -80.85880 34213 ft 455 kts 271°
2026-04-14 00:05 35.91285 -80.93691 34220 ft 456 kts 271°
2026-04-14 00:05 35.91357 -81.01507 34224 ft 455 kts 271°
2026-04-14 00:06 35.91425 -81.09314 34223 ft 455 kts 271°
2026-04-14 00:06 35.91488 -81.17063 34225 ft 455 kts 271°
2026-04-14 00:07 35.91544 -81.24861 34217 ft 455 kts 271°
2026-04-14 00:07 35.91597 -81.32659 34219 ft 454 kts 271°
2026-04-14 00:08 35.91644 -81.40451 34211 ft 454 kts 271°
2026-04-14 00:08 35.91685 -81.48242 34209 ft 454 kts 271°
2026-04-14 00:09 35.91722 -81.56020 34211 ft 454 kts 271°
2026-04-14 00:09 35.91755 -81.63799 34212 ft 453 kts 271°
2026-04-14 00:10 35.91782 -81.71569 34220 ft 453 kts 271°
2026-04-14 00:10 35.91804 -81.79339 34222 ft 453 kts 271°
2026-04-14 00:11 35.91821 -81.87103 34221 ft 452 kts 271°
2026-04-14 00:11 35.91833 -81.94863 34229 ft 452 kts 271°
2026-04-14 00:12 35.91839 -82.02613 34227 ft 452 kts 271°
2026-04-14 00:12 35.91841 -82.10375 34235 ft 452 kts 271°
2026-04-14 00:13 35.91838 -82.18133 34231 ft 452 kts 271°
2026-04-14 00:13 35.91830 -82.25897 34233 ft 453 kts 271°
2026-04-14 00:14 35.91817 -82.33656 34232 ft 452 kts 271°
2026-04-14 00:14 35.91799 -82.41419 34228 ft 453 kts 271°
2026-04-14 00:15 35.91776 -82.49187 34226 ft 452 kts 271°
2026-04-14 00:15 35.91748 -82.56947 34230 ft 453 kts 270°
2026-04-14 00:16 35.91715 -82.64715 34230 ft 453 kts 270°
2026-04-14 00:16 35.91677 -82.72492 34238 ft 453 kts 270°
2026-04-14 00:17 35.91634 -82.80266 34223 ft 453 kts 270°
2026-04-14 00:17 35.91586 -82.88029 34227 ft 452 kts 270°
2026-04-14 00:18 35.91533 -82.95776 34224 ft 451 kts 270°
2026-04-14 00:18 35.91476 -83.03455 34221 ft 450 kts 270°
2026-04-14 00:19 35.91413 -83.11173 34224 ft 450 kts 270°
2026-04-14 00:19 35.91346 -83.18891 34219 ft 450 kts 270°
2026-04-14 00:20 35.91274 -83.26601 34234 ft 449 kts 270°
2026-04-14 00:20 35.91196 -83.34314 34228 ft 450 kts 270°
2026-04-14 00:21 35.91114 -83.42031 34221 ft 450 kts 270°
2026-04-14 00:21 35.91027 -83.49749 34220 ft 450 kts 270°
2026-04-14 00:22 35.90951 -83.56165 34223 ft 450 kts 270°
2026-04-14 00:22 35.90854 -83.63883 34220 ft 450 kts 270°
2026-04-14 00:23 35.90753 -83.71603 34223 ft 450 kts 270°
2026-04-14 00:23 35.90648 -83.79327 34235 ft 450 kts 270°
2026-04-14 00:24 35.90225 -83.87032 34229 ft 452 kts 261°
2026-04-14 00:24 35.88549 -83.94504 34224 ft 454 kts 251°
2026-04-14 00:25 35.85890 -84.01602 34223 ft 456 kts 246°
2026-04-14 00:25 35.83092 -84.08628 34243 ft 457 kts 246°
2026-04-14 00:26 35.80485 -84.15738 34223 ft 456 kts 249°
2026-04-14 00:26 35.78025 -84.22954 34228 ft 456 kts 250°
2026-04-14 00:27 35.75563 -84.30154 34214 ft 457 kts 250°
2026-04-14 00:27 35.73070 -84.37344 34234 ft 457 kts 249°
2026-04-14 00:28 35.70562 -84.44526 34244 ft 457 kts 249°
2026-04-14 00:28 35.68044 -84.51706 34228 ft 457 kts 249°
2026-04-14 00:29 35.65519 -84.58892 34226 ft 457 kts 249°
2026-04-14 00:29 35.62994 -84.66066 34216 ft 457 kts 249°
2026-04-14 00:30 35.60460 -84.73248 34235 ft 458 kts 249°
2026-04-14 00:30 35.57926 -84.80413 34238 ft 458 kts 249°
2026-04-14 00:31 35.55383 -84.87589 34227 ft 458 kts 249°
2026-04-14 00:31 35.52834 -84.94762 34224 ft 458 kts 249°
2026-04-14 00:32 35.50245 -85.02042 32830 ft 470 kts 249°
2026-04-14 00:32 35.48934 -85.05718 31954 ft 470 kts 249°
2026-04-14 00:32 35.47620 -85.09396 31068 ft 471 kts 249°
2026-04-14 00:33 35.46307 -85.13063 30392 ft 468 kts 249°
2026-04-14 00:33 35.45002 -85.16706 29648 ft 464 kts 248°
2026-04-14 00:33 35.43707 -85.20314 28957 ft 460 kts 248°
2026-04-14 00:33 35.42425 -85.23883 28326 ft 455 kts 248°
2026-04-14 00:34 35.41153 -85.27424 27704 ft 451 kts 248°
2026-04-14 00:34 35.39895 -85.30921 27109 ft 447 kts 248°
2026-04-14 00:34 35.38646 -85.34392 26511 ft 443 kts 248°
2026-04-14 00:34 35.37408 -85.37828 25925 ft 439 kts 248°
2026-04-14 00:35 35.36177 -85.41241 25342 ft 436 kts 248°
2026-04-14 00:35 35.34954 -85.44625 24755 ft 434 kts 248°
2026-04-14 00:35 35.33737 -85.47992 24181 ft 431 kts 248°
2026-04-14 00:35 35.32525 -85.51343 23547 ft 429 kts 248°
2026-04-14 00:36 35.31321 -85.54666 22930 ft 425 kts 248°
2026-04-14 00:36 35.30126 -85.57960 22348 ft 421 kts 248°
2026-04-14 00:36 35.28944 -85.61215 21792 ft 417 kts 248°
2026-04-14 00:36 35.27771 -85.64440 21247 ft 413 kts 248°
2026-04-14 00:37 35.26608 -85.67639 20706 ft 409 kts 247°
2026-04-14 00:37 35.25471 -85.70760 20199 ft 406 kts 247°
2026-04-14 00:37 35.23943 -85.74952 19493 ft 402 kts 247°
2026-04-14 00:37 35.23173 -85.77061 19136 ft 400 kts 247°
2026-04-14 00:38 35.22043 -85.80154 18598 ft 398 kts 247°
2026-04-14 00:38 35.20929 -85.83201 18020 ft 396 kts 247°
2026-04-14 00:38 35.19793 -85.86306 17470 ft 393 kts 247°
2026-04-14 00:38 35.18692 -85.89311 16802 ft 393 kts 247°
2026-04-14 00:39 35.17579 -85.92346 16195 ft 378 kts 247°
2026-04-14 00:39 35.16528 -85.95207 15688 ft 360 kts 247°
2026-04-14 00:39 35.15523 -85.97939 15227 ft 346 kts 247°
2026-04-14 00:39 35.14535 -86.00625 14793 ft 347 kts 247°
2026-04-14 00:40 35.13536 -86.03345 14326 ft 355 kts 247°
2026-04-14 00:40 35.12527 -86.06090 13823 ft 363 kts 247°
2026-04-14 00:40 35.11490 -86.08906 13287 ft 363 kts 246°
2026-04-14 00:40 35.10455 -86.11712 12778 ft 360 kts 246°
2026-04-14 00:41 35.09430 -86.14485 12288 ft 357 kts 246°
2026-04-14 00:41 35.08413 -86.17235 11807 ft 354 kts 246°
2026-04-14 00:41 35.07405 -86.19962 11324 ft 351 kts 246°
2026-04-14 00:41 35.06407 -86.22657 11022 ft 343 kts 246°
2026-04-14 00:42 35.05443 -86.25257 10869 ft 331 kts 246°
2026-04-14 00:42 35.04511 -86.27771 10723 ft 319 kts 246°
2026-04-14 00:42 35.03612 -86.30194 10584 ft 308 kts 246°
2026-04-14 00:42 35.02744 -86.32530 10455 ft 296 kts 246°
2026-04-14 00:43 35.01910 -86.34775 10331 ft 285 kts 246°
2026-04-14 00:43 35.01106 -86.36937 10210 ft 274 kts 246°
2026-04-14 00:43 35.00336 -86.39005 10089 ft 262 kts 245°
2026-04-14 00:43 34.99601 -86.40979 9969 ft 251 kts 245°
2026-04-14 00:44 34.98871 -86.42941 9674 ft 257 kts 245°
2026-04-14 00:44 34.98123 -86.44947 9366 ft 263 kts 245°
2026-04-14 00:44 34.97363 -86.46985 9043 ft 264 kts 245°
2026-04-14 00:44 34.96610 -86.49003 8700 ft 260 kts 245°
2026-04-14 00:45 34.95866 -86.50995 8380 ft 256 kts 244°
2026-04-14 00:45 34.95135 -86.52953 8059 ft 252 kts 244°
2026-04-14 00:45 34.94413 -86.54884 7761 ft 248 kts 244°
2026-04-14 00:45 34.93704 -86.56779 7456 ft 243 kts 244°
2026-04-14 00:46 34.93005 -86.58647 7165 ft 243 kts 243°
2026-04-14 00:46 34.92295 -86.60541 6878 ft 247 kts 243°
2026-04-14 00:46 34.91576 -86.62458 6568 ft 250 kts 243°
2026-04-14 00:46 34.90854 -86.64384 6238 ft 249 kts 243°
2026-04-14 00:47 34.90140 -86.66288 5913 ft 245 kts 243°
2026-04-14 00:47 34.89439 -86.68158 5598 ft 241 kts 243°
2026-04-14 00:47 34.88748 -86.69997 5303 ft 238 kts 243°
2026-04-14 00:47 34.88053 -86.71843 5004 ft 241 kts 243°
2026-04-14 00:48 34.87349 -86.73713 4730 ft 245 kts 243°
2026-04-14 00:48 34.86631 -86.75604 4425 ft 244 kts 240°
2026-04-14 00:48 34.85600 -86.77109 4283 ft 225 kts 210°
2026-04-14 00:48 34.84174 -86.77655 4139 ft 209 kts 188°
2026-04-14 00:49 34.82750 -86.77811 3886 ft 201 kts 185°
2026-04-14 00:49 34.81390 -86.77880 3720 ft 191 kts 184°
2026-04-14 00:49 34.80058 -86.77915 3468 ft 192 kts 183°
2026-04-14 00:49 34.78743 -86.77941 3216 ft 185 kts 183°
2026-04-14 00:50 34.77493 -86.77965 2963 ft 174 kts 183°
2026-04-14 00:50 34.76289 -86.77988 2746 ft 170 kts 184°
2026-04-14 00:50 34.75148 -86.78011 2544 ft 156 kts 184°
2026-04-14 00:50 34.74101 -86.78032 2338 ft 146 kts 183°
2026-04-14 00:51 34.73107 -86.78053 2177 ft 142 kts 184°
2026-04-14 00:51 34.72117 -86.78073 1981 ft 143 kts 184°
2026-04-14 00:51 34.71101 -86.78094 1796 ft 148 kts 183°
2026-04-14 00:51 34.70087 -86.78116 1589 ft 149 kts 183°
2026-04-14 00:52 34.69046 -86.78139 1378 ft 150 kts 181°
2026-04-14 00:52 34.67984 -86.78152 1197 ft 153 kts 182°
2026-04-14 00:52 34.66919 -86.78180 995 ft 152 kts 182°
2026-04-14 00:52 34.65887 -86.78194 786 ft 150 kts 182°
2026-04-14 00:53 34.64839 -86.78219 650 ft 148 kts 182°
2026-04-14 00:53 34.63913 -86.78238 637 ft 110 kts 180°
2026-04-14 00:53 34.63336 -86.78248 646 ft 57 kts 181°
2026-04-14 00:53 34.63111 -86.78236 647 ft 15 kts 140°
2026-04-14 00:54 34.63089 -86.78114 644 ft 15 kts 91°
2026-04-14 00:54 34.63127 -86.78004 648 ft 16 kts 19°
2026-04-14 00:54 34.63237 -86.78000 645 ft 17 kts
2026-04-14 00:54 34.63371 -86.77998 642 ft 22 kts
2026-04-14 00:55 34.63530 -86.77994 644 ft 23 kts
2026-04-14 00:55 34.63689 -86.77991 642 ft 23 kts
2026-04-14 00:55 34.63852 -86.77988 640 ft 24 kts
2026-04-14 00:55 34.64016 -86.77986 641 ft 24 kts
2026-04-14 00:56 34.64167 -86.77959 645 ft 21 kts 51°
2026-04-14 00:56 34.64172 -86.77787 640 ft 21 kts 90°
2026-04-14 00:56 34.64172 -86.77612 639 ft 21 kts 91°
2026-04-14 00:56 34.64169 -86.77438 637 ft 21 kts 91°
2026-04-14 00:57 34.64166 -86.77263 636 ft 21 kts 91°
2026-04-14 00:57 34.64164 -86.77087 638 ft 21 kts 91°
2026-04-14 00:57 34.64162 -86.76915 640 ft 21 kts 91°
2026-04-14 00:57 34.64159 -86.76737 644 ft 21 kts 91°
2026-04-14 00:58 34.64156 -86.76562 644 ft 21 kts 90°
2026-04-14 00:58 34.64153 -86.76388 644 ft 20 kts 99°
2026-04-14 00:58 34.64080 -86.76332 639 ft 11 kts 139°
2026-04-14 00:58 34.64037 -86.76257 641 ft 10 kts 124°
2026-04-14 00:59 34.64026 -86.76230 643 ft 0 kts 111°
2026-04-14 01:00 34.64026 -86.76233 635 ft 0 kts 108°